M I D A S
Marine Information and Data Acquisition System
Tripno 1952 of the Zeeleeuw from 2010-09-03 06:50:40 to 2010-09-03 18:15:48
Back to CruiseResearch ActivitiesStationsMapUnderway DataData graphs

EquipmentUnitsComment
TimeDGPSUTC
LatitudeDGPSDM.mWGS84
LongitudeDGPSDM.mWGS84
TemperatureSBE03/SBE38deg celciusITS90
ConductivitySBE21S/mITS90
SalinitySBE21 Practical Salinity Units
ChlorophylAChelsea fluorimeterg/lCalibrated in Aceton
Missing or incorrect values are displayed as -999
Sea surface data collected by the RV Zeeleeuw from 2010-09-03 06:10:24 to 2010-09-03 18:27:01
                                                                                    Next 1000 lines
Time Latitude Longitude Temperature Conductivity Salinity ChlorophylA
2010-09-03 06:10:34 51°13.663 2°55.961 20.7885 0.334246 2.01672 -0.896096
2010-09-03 06:10:39 51°13.662 2°55.96 20.788 0.334246 2.01672 -0.896096
2010-09-03 06:10:44 51°13.662 2°55.96 20.7874 0.334246 2.01672 -0.896096
2010-09-03 06:10:49 51°13.662 2°55.96 20.7879 0.334246 2.016755 -0.861272
2010-09-03 06:10:54 51°13.662 2°55.96 20.7881 0.334246 2.016755 -0.861272
2010-09-03 06:10:59 51°13.662 2°55.96 20.7869 0.334246 2.016755 -0.896096
2010-09-03 06:11:03 51°13.662 2°55.96 20.7865 0.334246 2.016789 -0.861272
2010-09-03 06:11:08 51°13.662 2°55.96 20.7865 0.334246 2.016789 -0.861272
2010-09-03 06:11:13 51°13.662 2°55.96 20.7848 0.334246 2.016824 -0.896096
2010-09-03 06:11:18 51°13.662 2°55.959 20.7848 0.334246 2.016858 -0.896096
2010-09-03 06:11:23 51°13.662 2°55.959 20.7852 0.334246 2.016858 -0.896096
2010-09-03 06:11:28 51°13.662 2°55.959 20.7856 0.334246 2.016893 -0.896096
2010-09-03 06:11:33 51°13.662 2°55.959 20.7852 0.334246 2.016858 -0.896096
2010-09-03 06:11:38 51°13.662 2°55.959 20.7843 0.334246 2.016858 -0.896096
2010-09-03 06:11:42 51°13.662 2°55.959 20.7839 0.334246 2.016893 -0.896096
2010-09-03 06:11:47 51°13.662 2°55.96 20.7828 0.334246 2.016927 -0.861272
2010-09-03 06:11:52 51°13.662 2°55.96 20.7834 0.334246 2.016962 -0.861272
2010-09-03 06:11:57 51°13.662 2°55.959 20.7813 0.334246 2.016996 -0.861272
2010-09-03 06:12:02 51°13.662 2°55.96 20.7793 0.334246 2.016996 -0.861272
2010-09-03 06:12:07 51°13.662 2°55.96 20.7778 0.334246 2.016996 -0.861272
2010-09-03 06:12:11 51°13.662 2°55.96 20.7785 0.334246 2.016996 -0.896096
2010-09-03 06:12:17 51°13.662 2°55.96 20.7763 0.334246 2.01703 -0.861272
2010-09-03 06:12:21 51°13.662 2°55.96 20.7763 0.334246 2.01703 -0.896096
2010-09-03 06:12:26 51°13.662 2°55.96 20.7754 0.334246 2.017065 -0.896096
2010-09-03 06:12:31 51°13.662 2°55.96 20.7763 0.334142 2.016398 -0.861272
2010-09-03 06:12:36 51°13.662 2°55.96 20.7765 0.334142 2.016398 -0.861272
2010-09-03 06:12:41 51°13.662 2°55.96 20.7753 0.334246 2.017099 -0.861272
2010-09-03 06:12:46 51°13.662 2°55.96 20.7745 0.334246 2.017134 -0.861272
2010-09-03 06:12:50 51°13.662 2°55.96 20.7747 0.334142 2.016501 -0.861272
2010-09-03 06:12:55 51°13.662 2°55.96 20.7755 0.334142 2.016501 -0.861272
2010-09-03 06:13:00 51°13.662 2°55.96 20.7758 0.334142 2.016536 -0.861272
2010-09-03 06:13:06 51°13.662 2°55.96 20.775 0.334142 2.016536 -0.861272
2010-09-03 06:13:10 51°13.662 2°55.96 20.7752 0.334142 2.01657 -0.896096
2010-09-03 06:13:15 51°13.662 2°55.96 20.7761 0.334142 2.016605 -0.896096
2010-09-03 06:13:20 51°13.662 2°55.96 20.774 0.334142 2.016605 -0.896096
2010-09-03 06:13:26 51°13.662 2°55.96 20.7743 0.334142 2.016639 -0.896096
2010-09-03 06:13:30 51°13.662 2°55.96 20.7756 0.334142 2.016674 -0.896096
2010-09-03 06:13:35 51°13.662 2°55.96 20.7766 0.334142 2.016674 -0.896096
2010-09-03 06:13:40 51°13.662 2°55.96 20.7771 0.334142 2.016708 -0.861272
2010-09-03 06:13:46 51°13.662 2°55.96 20.7775 0.334142 2.016743 -0.861272
2010-09-03 06:13:50 51°13.662 2°55.96 20.7782 0.334142 2.016743 -0.93092
2010-09-03 06:13:55 51°13.662 2°55.96 20.7784 0.334142 2.016777 -0.861272
2010-09-03 06:14:01 51°13.662 2°55.96 20.778 0.334142 2.016846 -0.896096
2010-09-03 06:14:06 51°13.662 2°55.96 20.7786 0.334142 2.016846 -0.896096
2010-09-03 06:14:10 51°13.662 2°55.96 20.7774 0.334142 2.016846 -0.93092
2010-09-03 06:14:15 51°13.662 2°55.96 20.7768 0.334142 2.016846 -0.896096
2010-09-03 06:14:20 51°13.662 2°55.96 20.7715 0.334142 2.016915 -0.861272
2010-09-03 06:14:25 51°13.662 2°55.96 20.7687 0.334142 2.016915 -0.896096
2010-09-03 06:14:30 51°13.662 2°55.96 20.7697 0.334142 2.01695 -0.896096
2010-09-03 06:14:35 51°13.662 2°55.96 20.7718 0.334142 2.01695 -0.896096
2010-09-03 06:14:40 51°13.662 2°55.96 20.7736 0.334142 2.016984 -0.861272
2010-09-03 06:14:45 51°13.662 2°55.96 20.7747 0.334142 2.017053 -0.861272
2010-09-03 06:14:50 51°13.662 2°55.96 20.7755 0.334142 2.017053 -0.896096
2010-09-03 06:14:55 51°13.662 2°55.96 20.7749 0.334038 2.01642 -0.896096
2010-09-03 06:15:00 51°13.662 2°55.96 20.7737 0.334142 2.017122 -0.861272
2010-09-03 06:15:06 51°13.662 2°55.96 20.7747 0.334142 2.017122 -0.861272
2010-09-03 06:15:10 51°13.662 2°55.96 20.7758 0.334142 2.017122 -0.861272
2010-09-03 06:15:16 51°13.662 2°55.96 20.7751 0.334142 2.017191 -0.896096
2010-09-03 06:15:20 51°13.662 2°55.96 20.7747 0.334038 2.016524 -0.896096
2010-09-03 06:15:25 51°13.662 2°55.96 20.773 0.334038 2.016593 -0.896096
2010-09-03 06:15:30 51°13.662 2°55.96 20.773 0.334038 2.016627 -0.896096
2010-09-03 06:15:36 51°13.662 2°55.96 20.7728 0.334038 2.016627 -0.896096
2010-09-03 06:15:41 51°13.662 2°55.959 20.7719 0.334038 2.016627 -0.896096
2010-09-03 06:15:46 51°13.662 2°55.959 20.772 0.334038 2.016662 -0.896096
2010-09-03 06:15:50 51°13.662 2°55.96 20.7727 0.334038 2.016696 -0.896096
2010-09-03 06:15:54 51°13.662 2°55.96 20.7738 0.334038 2.016731 -0.896096
2010-09-03 06:16:01 51°13.662 2°55.96 20.7744 0.334038 2.016731 -0.896096
2010-09-03 06:16:06 51°13.662 2°55.96 20.7742 0.334038 2.016731 -0.896096
2010-09-03 06:16:10 51°13.662 2°55.96 20.7739 0.334038 2.016765 -0.896096
2010-09-03 06:16:15 51°13.662 2°55.959 20.7743 0.334038 2.016834 -0.861272
2010-09-03 06:16:20 51°13.662 2°55.96 20.7747 0.334038 2.016834 -0.861272
2010-09-03 06:16:26 51°13.662 2°55.96 20.7733 0.334038 2.016903 -0.896096
2010-09-03 06:16:30 51°13.662 2°55.96 20.7734 0.334038 2.016903 -0.861272
2010-09-03 06:16:34 51°13.662 2°55.96 20.7742 0.334038 2.016903 -0.861272
2010-09-03 06:16:40 51°13.662 2°55.96 20.7722 0.334038 2.016938 -0.861272
2010-09-03 06:16:46 51°13.662 2°55.96 20.7701 0.334038 2.016972 -0.896096
2010-09-03 06:16:50 51°13.662 2°55.96 20.7699 0.334038 2.016972 -0.861272
2010-09-03 06:16:55 51°13.662 2°55.96 20.7704 0.334038 2.017007 -0.896096
2010-09-03 06:17:00 51°13.662 2°55.96 20.7715 0.334038 2.017007 -0.896096
2010-09-03 06:17:05 51°13.662 2°55.96 20.7704 0.334038 2.017007 -0.896096
2010-09-03 06:17:10 51°13.662 2°55.96 20.7704 0.334038 2.017076 -0.896096
2010-09-03 06:17:15 51°13.662 2°55.96 20.7702 0.334038 2.017076 -0.896096
2010-09-03 06:17:20 51°13.662 2°55.96 20.7709 0.334038 2.017076 -0.896096
2010-09-03 06:17:25 51°13.662 2°55.96 20.7725 0.334038 2.01711 -0.861272
2010-09-03 06:17:30 51°13.662 2°55.96 20.7729 0.334038 2.017179 -0.896096
2010-09-03 06:17:35 51°13.662 2°55.96 20.7725 0.334038 2.017179 -0.896096
2010-09-03 06:17:40 51°13.662 2°55.96 20.7704 0.334038 2.017179 -0.861272
2010-09-03 06:17:46 51°13.662 2°55.96 20.7704 0.334038 2.017214 -0.861272
2010-09-03 06:17:50 51°13.662 2°55.96 20.7697 0.333933 2.016546 -0.896096
2010-09-03 06:17:55 51°13.662 2°55.96 20.7688 0.333933 2.016581 -0.861272
2010-09-03 06:18:01 51°13.662 2°55.96 20.7687 0.333933 2.016615 -0.861272
2010-09-03 06:18:06 51°13.662 2°55.961 20.7685 0.333933 2.016615 -0.861272
2010-09-03 06:18:10 51°13.662 2°55.96 20.7695 0.333933 2.01665 -0.896096
2010-09-03 06:18:15 51°13.662 2°55.96 20.7693 0.333933 2.01665 -0.896096
2010-09-03 06:18:20 51°13.662 2°55.961 20.7691 0.333933 2.016684 -0.861272
2010-09-03 06:18:26 51°13.662 2°55.96 20.7699 0.333933 2.016719 -0.896096
2010-09-03 06:18:30 51°13.662 2°55.96 20.7705 0.333933 2.016719 -0.93092
2010-09-03 06:18:35 51°13.662 2°55.961 20.7694 0.333933 2.016719 -0.93092
2010-09-03 06:18:40 51°13.662 2°55.961 20.7704 0.333933 2.016753 -0.861272
2010-09-03 06:18:46 51°13.662 2°55.961 20.7688 0.333933 2.016753 -0.896096
2010-09-03 06:18:50 51°13.662 2°55.961 20.7702 0.333933 2.016822 -0.896096
2010-09-03 06:18:54 51°13.662 2°55.961 20.7703 0.333933 2.016857 -0.896096
2010-09-03 06:19:00 51°13.662 2°55.96 20.7719 0.333933 2.016857 -0.861272
2010-09-03 06:19:06 51°13.662 2°55.96 20.7723 0.333933 2.016857 -0.861272
2010-09-03 06:19:10 51°13.662 2°55.96 20.7733 0.333933 2.016891 -0.896096
2010-09-03 06:19:16 51°13.662 2°55.96 20.7717 0.333933 2.016891 -0.896096
2010-09-03 06:19:21 51°13.662 2°55.961 20.7702 0.333933 2.016926 -0.896096
2010-09-03 06:19:26 51°13.662 2°55.96 20.7694 0.333933 2.01696 -0.861272
2010-09-03 06:19:30 51°13.662 2°55.96 20.7661 0.333933 2.016995 -0.896096
2010-09-03 06:19:35 51°13.662 2°55.961 20.7676 0.333933 2.016995 -0.896096
2010-09-03 06:19:40 51°13.662 2°55.961 20.7668 0.333933 2.017029 -0.896096
2010-09-03 06:19:46 51°13.662 2°55.961 20.7669 0.333933 2.017029 -0.861272
2010-09-03 06:19:50 51°13.662 2°55.961 20.7689 0.333933 2.017064 -0.896096
2010-09-03 06:19:55 51°13.662 2°55.961 20.7693 0.333933 2.017098 -0.896096
2010-09-03 06:20:00 51°13.662 2°55.961 20.7704 0.333933 2.017098 -0.861272
2010-09-03 06:20:06 51°13.662 2°55.961 20.7708 0.333933 2.017098 -0.861272
2010-09-03 06:20:10 51°13.662 2°55.961 20.7704 0.333933 2.017133 -0.896096
2010-09-03 06:20:16 51°13.662 2°55.961 20.771 0.333933 2.017167 -0.896096
2010-09-03 06:20:21 51°13.662 2°55.961 20.7704 0.333829 2.016534 -0.93092
2010-09-03 06:20:26 51°13.662 2°55.961 20.7708 0.333829 2.016569 -0.896096
2010-09-03 06:20:31 51°13.662 2°55.961 20.7718 0.333829 2.016603 -0.896096
2010-09-03 06:20:36 51°13.662 2°55.961 20.7718 0.333829 2.016603 -0.896096
2010-09-03 06:20:42 51°13.662 2°55.961 20.7728 0.333829 2.016569 -0.896096
2010-09-03 06:20:47 51°13.662 2°55.961 20.774 0.333829 2.016672 -0.896096
2010-09-03 06:20:52 51°13.662 2°55.961 20.774 0.333829 2.016638 -0.896096
2010-09-03 06:20:58 51°13.662 2°55.961 20.7738 0.333829 2.016672 -0.896096
2010-09-03 06:21:02 51°13.662 2°55.961 20.7697 0.333829 2.016707 -0.896096
2010-09-03 06:21:08 51°13.662 2°55.961 20.7676 0.333829 2.016707 -0.896096
2010-09-03 06:21:13 51°13.662 2°55.96 20.7697 0.333829 2.016707 -0.861272
2010-09-03 06:21:18 51°13.662 2°55.961 20.772 0.333829 2.016741 -0.896096
2010-09-03 06:21:23 51°13.662 2°55.961 20.7713 0.333829 2.01681 -0.861272
2010-09-03 06:21:29 51°13.662 2°55.961 20.7722 0.333829 2.016776 -0.861272
2010-09-03 06:21:34 51°13.662 2°55.961 20.7711 0.333829 2.01681 -0.896096
2010-09-03 06:21:39 51°13.662 2°55.961 20.7723 0.333829 2.01681 -0.896096
2010-09-03 06:21:44 51°13.662 2°55.961 20.774 0.333829 2.016845 -0.861272
2010-09-03 06:21:49 51°13.662 2°55.96 20.7721 0.333829 2.016845 -0.896096
2010-09-03 06:21:54 51°13.662 2°55.96 20.7733 0.333829 2.016879 -0.896096
2010-09-03 06:21:59 51°13.663 2°55.961 20.7736 0.333829 2.016914 -0.93092
2010-09-03 06:22:04 51°13.663 2°55.961 20.7713 0.333829 2.016914 -0.861272
2010-09-03 06:22:09 51°13.663 2°55.96 20.7744 0.333829 2.016914 -0.861272
2010-09-03 06:22:14 51°13.663 2°55.961 20.7749 0.333829 2.016948 -0.861272
2010-09-03 06:22:19 51°13.663 2°55.961 20.7744 0.333829 2.016983 -0.861272
2010-09-03 06:22:24 51°13.663 2°55.961 20.7758 0.333829 2.017017 -0.861272
2010-09-03 06:22:29 51°13.662 2°55.96 20.7777 0.333829 2.017017 -0.896096
2010-09-03 06:22:34 51°13.663 2°55.96 20.7779 0.333725 2.016384 -0.896096
2010-09-03 06:22:38 51°13.663 2°55.96 20.7794 0.333725 2.016384 -0.896096
2010-09-03 06:22:44 51°13.663 2°55.96 20.78 0.333725 2.016384 -0.896096
2010-09-03 06:22:49 51°13.663 2°55.96 20.7794 0.333725 2.016419 -0.896096
2010-09-03 06:22:54 51°13.663 2°55.96 20.7801 0.333725 2.016453 -0.896096
2010-09-03 06:22:58 51°13.663 2°55.96 20.7812 0.333725 2.016488 -0.896096
2010-09-03 06:23:03 51°13.663 2°55.96 20.7812 0.333725 2.016488 -0.896096
2010-09-03 06:23:09 51°13.662 2°55.96 20.7801 0.333725 2.016488 -0.896096
2010-09-03 06:23:14 51°13.662 2°55.96 20.7792 0.333725 2.016453 -0.896096
2010-09-03 06:23:18 51°13.662 2°55.96 20.7735 0.333725 2.016488 -0.896096
2010-09-03 06:23:23 51°13.662 2°55.96 20.7764 0.333725 2.016488 -0.896096
2010-09-03 06:23:28 51°13.662 2°55.96 20.7771 0.333725 2.016522 -0.896096
2010-09-03 06:23:33 51°13.662 2°55.96 20.7778 0.333725 2.016557 -0.896096
2010-09-03 06:23:38 51°13.662 2°55.96 20.7789 0.333725 2.016557 -0.896096
2010-09-03 06:23:43 51°13.662 2°55.96 20.7789 0.333725 2.016591 -0.896096
2010-09-03 06:23:48 51°13.662 2°55.96 20.7778 0.333725 2.016626 -0.896096
2010-09-03 06:23:53 51°13.662 2°55.96 20.777 0.333725 2.016626 -0.896096
2010-09-03 06:23:58 51°13.662 2°55.96 20.7791 0.333725 2.016626 -0.861272
2010-09-03 06:24:02 51°13.662 2°55.96 20.7788 0.333725 2.01666 -0.896096
2010-09-03 06:24:07 51°13.662 2°55.96 20.7816 0.333725 2.01666 -0.896096
2010-09-03 06:24:12 51°13.662 2°55.961 20.782 0.333725 2.01666 -0.896096
2010-09-03 06:24:17 51°13.662 2°55.96 20.7821 0.333725 2.016695 -0.896096
2010-09-03 06:24:22 51°13.662 2°55.96 20.7825 0.333725 2.016729 -0.896096
2010-09-03 06:24:27 51°13.662 2°55.96 20.7815 0.333725 2.016729 -0.896096
2010-09-03 06:24:31 51°13.662 2°55.96 20.7801 0.333725 2.016764 -0.861272
2010-09-03 06:24:37 51°13.662 2°55.96 20.7798 0.333725 2.016764 -0.861272
2010-09-03 06:24:42 51°13.662 2°55.96 20.7808 0.333621 2.016062 -0.896096
2010-09-03 06:24:46 51°13.662 2°55.96 20.7779 0.333621 2.016096 -0.896096
2010-09-03 06:24:51 51°13.662 2°55.96 20.7776 0.333621 2.016131 -0.896096
2010-09-03 06:24:56 51°13.662 2°55.96 20.7802 0.333621 2.016165 -0.896096
2010-09-03 06:25:01 51°13.662 2°55.96 20.7805 0.333621 2.016165 -0.896096
2010-09-03 06:25:06 51°13.662 2°55.96 20.7811 0.333621 2.016165 -0.896096
2010-09-03 06:25:10 51°13.662 2°55.96 20.7812 0.333621 2.0162 -0.896096
2010-09-03 06:25:15 51°13.662 2°55.96 20.7815 0.333621 2.016234 -0.896096
2010-09-03 06:25:20 51°13.662 2°55.96 20.7801 0.333621 2.016269 -0.896096
2010-09-03 06:25:26 51°13.662 2°55.96 20.7796 0.333621 2.016269 -0.861272
2010-09-03 06:25:30 51°13.662 2°55.961 20.7798 0.333621 2.016269 -0.861272
2010-09-03 06:25:35 51°13.662 2°55.961 20.7802 0.333621 2.016269 -0.861272
2010-09-03 06:25:40 51°13.662 2°55.96 20.7815 0.333621 2.016303 -0.896096
2010-09-03 06:25:45 51°13.662 2°55.96 20.7815 0.333621 2.016338 -0.896096
2010-09-03 06:25:50 51°13.662 2°55.961 20.7808 0.333621 2.016338 -0.861272
2010-09-03 06:25:55 51°13.662 2°55.961 20.7816 0.333621 2.016372 -0.896096
2010-09-03 06:26:00 51°13.663 2°55.961 20.781 0.333621 2.016407 -0.93092
2010-09-03 06:26:05 51°13.663 2°55.961 20.7793 0.333621 2.016407 -0.93092
2010-09-03 06:26:10 51°13.662 2°55.96 20.7798 0.333621 2.016407 -0.896096
2010-09-03 06:26:15 51°13.662 2°55.96 20.7812 0.333621 2.016476 -0.861272
2010-09-03 06:26:20 51°13.662 2°55.96 20.7805 0.333621 2.01651 -0.861272
2010-09-03 06:26:26 51°13.662 2°55.96 20.7813 0.333621 2.01651 -0.861272
2010-09-03 06:26:30 51°13.662 2°55.96 20.7809 0.333621 2.01651 -0.896096
2010-09-03 06:26:36 51°13.662 2°55.96 20.782 0.333621 2.01651 -0.896096
2010-09-03 06:26:41 51°13.662 2°55.96 20.7787 0.333516 2.015877 -0.896096
2010-09-03 06:26:46 51°13.662 2°55.96 20.7798 0.333621 2.01658 -0.896096
2010-09-03 06:26:50 51°13.662 2°55.96 20.7803 0.333621 2.01658 -0.896096
2010-09-03 06:26:55 51°13.662 2°55.96 20.7777 0.333621 2.016614 -0.896096
2010-09-03 06:27:00 51°13.662 2°55.96 20.7803 0.333516 2.015981 -0.861272
2010-09-03 06:27:06 51°13.662 2°55.96 20.7802 0.333516 2.015981 -0.861272
2010-09-03 06:27:10 51°13.662 2°55.959 20.7806 0.333516 2.016015 -0.896096
2010-09-03 06:27:15 51°13.662 2°55.96 20.7818 0.333516 2.016015 -0.896096
2010-09-03 06:27:21 51°13.662 2°55.96 20.7829 0.333516 2.01605 -0.896096
2010-09-03 06:27:26 51°13.662 2°55.96 20.7834 0.333516 2.016084 -0.896096
2010-09-03 06:27:30 51°13.662 2°55.96 20.7834 0.333516 2.016084 -0.896096
2010-09-03 06:27:35 51°13.662 2°55.96 20.7842 0.333516 2.016084 -0.896096
2010-09-03 06:27:40 51°13.662 2°55.961 20.7868 0.333516 2.016119 -0.896096
2010-09-03 06:27:46 51°13.662 2°55.961 20.7867 0.333516 2.016188 -0.896096
2010-09-03 06:27:50 51°13.662 2°55.961 20.7834 0.333516 2.016257 -0.896096
2010-09-03 06:27:56 51°13.662 2°55.961 20.7861 0.333516 2.016222 -0.896096
2010-09-03 06:28:01 51°13.662 2°55.961 20.7828 0.333516 2.016257 -0.896096
2010-09-03 06:28:06 51°13.662 2°55.961 20.7836 0.333516 2.016257 -0.896096
2010-09-03 06:28:10 51°13.662 2°55.961 20.783 0.333516 2.016257 -0.896096
2010-09-03 06:28:15 51°13.662 2°55.961 20.7825 0.333516 2.016291 -0.861272
2010-09-03 06:28:20 51°13.662 2°55.96 20.7865 0.333516 2.016291 -0.896096
2010-09-03 06:28:26 51°13.661 2°55.961 20.7884 0.333516 2.016326 -0.896096
2010-09-03 06:28:30 51°13.661 2°55.961 20.786 0.333516 2.01636 -0.896096
2010-09-03 06:28:35 51°13.661 2°55.96 20.7861 0.333516 2.01636 -0.896096
2010-09-03 06:28:40 51°13.661 2°55.96 20.7816 0.333516 2.01636 -0.93092
2010-09-03 06:28:46 51°13.661 2°55.96 20.7798 0.333516 2.016395 -0.896096
2010-09-03 06:28:50 51°13.661 2°55.96 20.7752 0.333516 2.016395 -0.896096
2010-09-03 06:28:55 51°13.661 2°55.959 20.7755 0.333516 2.01643 -0.896096
2010-09-03 06:29:01 51°13.661 2°55.958 20.7764 0.333516 2.016464 -0.896096
2010-09-03 06:29:06 51°13.661 2°55.956 20.7852 0.333516 2.016464 -0.896096
2010-09-03 06:29:10 51°13.662 2°55.954 20.7868 0.333516 2.016499 -0.93092
2010-09-03 06:29:15 51°13.663 2°55.951 20.7853 0.333516 2.016499 -0.896096
2010-09-03 06:29:20 51°13.663 2°55.948 20.7784 0.333412 2.015865 -0.896096
2010-09-03 06:29:26 51°13.664 2°55.943 20.7861 0.333412 2.015934 -0.896096
2010-09-03 06:29:30 51°13.665 2°55.94 20.7902 0.333412 2.015969 -0.93092
2010-09-03 06:29:36 51°13.667 2°55.935 20.7878 0.333412 2.015969 -0.93092
2010-09-03 06:29:42 51°13.669 2°55.929 20.7903 0.333412 2.016003 -0.861272
2010-09-03 06:29:48 51°13.671 2°55.923 20.7905 0.333412 2.016003 -0.896096
2010-09-03 06:29:53 51°13.672 2°55.917 20.7842 0.333412 2.016038 -0.896096
2010-09-03 06:29:59 51°13.674 2°55.911 20.7868 0.333412 2.016072 -0.896096
2010-09-03 06:30:04 51°13.676 2°55.905 20.7876 0.333412 2.016107 -0.861272
2010-09-03 06:30:09 51°13.678 2°55.898 20.7854 0.333412 2.016107 -0.861272
2010-09-03 06:30:14 51°13.68 2°55.892 20.7863 0.333412 2.016107 -0.93092
2010-09-03 06:30:19 51°13.682 2°55.886 20.7864 0.333412 2.016141 -0.861272
2010-09-03 06:30:24 51°13.684 2°55.879 20.7893 0.333412 2.016141 -0.896096
2010-09-03 06:30:29 51°13.686 2°55.872 20.7905 0.333412 2.01621 -0.861272
2010-09-03 06:30:34 51°13.688 2°55.866 20.7892 0.333412 2.016176 -0.896096
2010-09-03 06:30:39 51°13.69 2°55.858 20.7893 0.333412 2.016176 -0.896096
2010-09-03 06:30:44 51°13.691 2°55.851 20.7883 0.333412 2.01621 -0.896096
2010-09-03 06:30:49 51°13.692 2°55.845 20.79 0.333412 2.01621 -0.861272
2010-09-03 06:30:54 51°13.694 2°55.838 20.7888 0.333412 2.016245 -0.896096
2010-09-03 06:30:59 51°13.695 2°55.83 20.79 0.333412 2.016245 -0.896096
2010-09-03 06:31:04 51°13.697 2°55.822 20.7904 0.333412 2.01628 -0.861272
2010-09-03 06:31:09 51°13.698 2°55.815 20.7915 0.333412 2.01628 -0.861272
2010-09-03 06:31:14 51°13.699 2°55.807 20.7915 0.333412 2.01628 -0.861272
2010-09-03 06:31:19 51°13.7 2°55.799 20.7899 0.333412 2.01628 -0.896096
2010-09-03 06:31:24 51°13.7 2°55.792 20.7928 0.333412 2.01628 -0.861272
2010-09-03 06:31:29 51°13.701 2°55.784 20.7919 0.333412 2.01628 -0.896096
2010-09-03 06:31:34 51°13.701 2°55.777 20.7918 0.333412 2.016314 -0.861272
2010-09-03 06:31:39 51°13.702 2°55.77 20.7925 0.333412 2.016314 -0.861272
2010-09-03 06:31:44 51°13.702 2°55.764 20.7946 0.333412 2.01628 -0.93092
2010-09-03 06:31:49 51°13.703 2°55.758 20.7881 0.333412 2.016314 -0.896096
2010-09-03 06:31:54 51°13.703 2°55.752 20.7925 0.333412 2.016349 -0.896096
2010-09-03 06:31:58 51°13.704 2°55.748 20.7818 0.333412 2.016314 -0.896096
2010-09-03 06:32:03 51°13.704 2°55.743 20.7919 0.333308 2.015715 -0.896096
2010-09-03 06:32:08 51°13.704 2°55.741 20.7943 0.333308 2.015715 -0.896096
2010-09-03 06:32:13 51°13.704 2°55.739 20.7964 0.333412 2.016349 -0.896096
2010-09-03 06:32:18 51°13.705 2°55.738 20.8019 0.333308 2.015715 -0.861272
2010-09-03 06:32:22 51°13.705 2°55.739 20.8103 0.333412 2.016383 -0.896096
2010-09-03 06:32:28 51°13.706 2°55.74 20.8136 0.333308 2.015715 -0.861272
2010-09-03 06:32:32 51°13.707 2°55.742 20.7964 0.333308 2.015749 -0.896096
2010-09-03 06:32:37 51°13.708 2°55.744 20.7875 0.333308 2.015749 -0.896096
2010-09-03 06:32:42 51°13.709 2°55.746 20.7608 0.333308 2.015784 -0.896096
2010-09-03 06:32:47 51°13.71 2°55.747 20.7728 0.333308 2.015853 -0.896096
2010-09-03 06:32:52 51°13.711 2°55.748 20.7751 0.333412 2.016556 -0.896096
2010-09-03 06:32:57 51°13.711 2°55.748 20.7834 0.333412 2.016521 -0.826448
2010-09-03 06:33:02 51°13.711 2°55.748 20.7665 0.333308 2.015888 -0.861272
2010-09-03 06:33:06 51°13.711 2°55.748 20.7483 0.333308 2.015888 -0.861272
2010-09-03 06:33:11 51°13.71 2°55.747 20.7533 0.333308 2.015888 -0.861272
2010-09-03 06:33:16 51°13.709 2°55.746 20.7525 0.333308 2.015888 -0.896096
2010-09-03 06:33:21 51°13.708 2°55.745 20.7813 0.333308 2.015888 -0.896096
2010-09-03 06:33:26 51°13.707 2°55.744 20.7784 0.333308 2.015853 -0.861272
2010-09-03 06:33:30 51°13.706 2°55.743 20.7784 0.333308 2.015853 -0.896096
2010-09-03 06:33:36 51°13.704 2°55.742 20.7937 0.333308 2.015853 -0.896096
2010-09-03 06:33:42 51°13.704 2°55.742 20.8004 0.333308 2.015853 -0.861272
2010-09-03 06:33:47 51°13.704 2°55.742 20.8011 0.333308 2.015888 -0.896096
2010-09-03 06:33:51 51°13.705 2°55.742 20.8011 0.333308 2.015888 -0.861272
2010-09-03 06:33:57 51°13.706 2°55.742 20.8095 0.333308 2.015888 -0.896096
2010-09-03 06:34:02 51°13.708 2°55.742 20.8136 0.333308 2.015957 -0.896096
2010-09-03 06:34:06 51°13.71 2°55.741 20.809 0.333308 2.015957 -0.896096
2010-09-03 06:34:11 51°13.713 2°55.741 20.8044 0.333308 2.016026 -0.861272
2010-09-03 06:34:16 51°13.715 2°55.739 20.7986 0.333308 2.016095 -0.861272
2010-09-03 06:34:21 51°13.718 2°55.738 20.7942 0.333308 2.016095 -0.896096
2010-09-03 06:34:26 51°13.721 2°55.736 20.8015 0.333308 2.016095 -0.861272
2010-09-03 06:34:30 51°13.724 2°55.734 20.802 0.333308 2.016095 -0.861272
2010-09-03 06:34:36 51°13.728 2°55.731 20.8036 0.333308 2.016095 -0.861272
2010-09-03 06:34:40 51°13.732 2°55.728 20.8038 0.333308 2.01606 -0.896096
2010-09-03 06:34:46 51°13.738 2°55.722 20.7952 0.333308 2.01606 -0.861272
2010-09-03 06:34:50 51°13.743 2°55.718 20.7908 0.333308 2.016095 -0.896096
2010-09-03 06:34:55 51°13.749 2°55.712 20.7747 0.333308 2.016095 -0.896096
2010-09-03 06:35:00 51°13.756 2°55.705 20.7564 0.333308 2.016095 -0.861272
2010-09-03 06:35:05 51°13.763 2°55.697 20.7433 0.333308 2.016095 -0.861272
2010-09-03 06:35:10 51°13.771 2°55.688 20.7038 0.333308 2.01613 -0.896096
2010-09-03 06:35:15 51°13.779 2°55.68 20.6989 0.333203 2.015496 -0.896096
2010-09-03 06:35:20 51°13.788 2°55.671 20.6963 0.333203 2.015496 -0.896096
2010-09-03 06:35:26 51°13.799 2°55.662 20.6698 0.333203 2.015461 -0.861272
2010-09-03 06:35:30 51°13.807 2°55.655 20.6618 0.333203 2.01553 -0.896096
2010-09-03 06:35:36 51°13.819 2°55.646 20.6749 0.333203 2.01553 -0.896096
2010-09-03 06:35:40 51°13.827 2°55.639 20.6786 0.333203 2.015565 -0.861272
2010-09-03 06:35:45 51°13.837 2°55.631 20.6776 0.333203 2.015599 -0.896096
2010-09-03 06:35:50 51°13.848 2°55.623 20.6919 0.333203 2.015668 -0.896096
2010-09-03 06:35:55 51°13.859 2°55.616 20.6827 0.333203 2.015738 -0.861272
2010-09-03 06:36:00 51°13.87 2°55.607 20.6995 0.333203 2.015772 -0.896096
2010-09-03 06:36:06 51°13.883 2°55.597 20.7018 0.333203 2.015772 -0.896096
2010-09-03 06:36:10 51°13.891 2°55.59 20.7001 0.333203 2.015841 -0.896096
2010-09-03 06:36:14 51°13.9 2°55.583 20.7032 0.333203 2.015876 -0.896096
2010-09-03 06:36:21 51°13.916 2°55.571 20.688 0.333203 2.015841 -0.861272
2010-09-03 06:36:26 51°13.927 2°55.562 20.7013 0.333203 2.015876 -0.896096
2010-09-03 06:36:30 51°13.936 2°55.555 20.7003 0.333203 2.015876 -0.896096
2010-09-03 06:36:34 51°13.945 2°55.549 20.6794 0.333203 2.015876 -0.896096
2010-09-03 06:36:40 51°13.958 2°55.538 20.6822 0.333203 2.01591 -0.861272
2010-09-03 06:36:46 51°13.972 2°55.528 20.6928 0.333203 2.01598 -0.896096
2010-09-03 06:36:50 51°13.981 2°55.522 20.6962 0.333203 2.016014 -0.896096
2010-09-03 06:36:55 51°13.992 2°55.513 20.7035 0.333203 2.016083 -0.896096
2010-09-03 06:37:00 51°14.004 2°55.505 20.7114 0.333203 2.016083 -0.861272
2010-09-03 06:37:06 51°14.017 2°55.494 20.7241 0.333203 2.016083 -0.861272
2010-09-03 06:37:10 51°14.026 2°55.487 20.7241 0.333203 2.016152 -0.896096
2010-09-03 06:37:15 51°14.038 2°55.479 20.7209 0.333203 2.016152 -0.896096
2010-09-03 06:37:20 51°14.05 2°55.47 20.7054 0.333203 2.016152 -0.896096
2010-09-03 06:37:26 51°14.063 2°55.461 20.7077 0.333203 2.016152 -0.861272
2010-09-03 06:37:30 51°14.073 2°55.454 20.7137 0.333203 2.016152 -0.896096
2010-09-03 06:37:35 51°14.084 2°55.446 20.7156 0.333203 2.016152 -0.896096
2010-09-03 06:37:40 51°14.096 2°55.439 20.704 0.333203 2.016222 -0.896096
2010-09-03 06:37:46 51°14.11 2°55.429 20.7257 0.333203 2.016256 -0.896096
2010-09-03 06:37:50 51°14.119 2°55.422 20.7298 0.333203 2.016291 -0.861272
2010-09-03 06:37:56 51°14.133 2°55.412 20.7217 0.333203 2.01636 -0.896096
2010-09-03 06:38:00 51°14.142 2°55.406 20.7334 0.333203 2.016394 -0.861272
2010-09-03 06:38:06 51°14.156 2°55.396 20.7352 0.333203 2.016394 -0.861272
2010-09-03 06:38:10 51°14.166 2°55.389 20.7339 0.333203 2.016394 -0.896096
2010-09-03 06:38:15 51°14.177 2°55.38 20.7469 0.333203 2.016429 -0.861272
2010-09-03 06:38:20 51°14.189 2°55.372 20.7427 0.333099 2.01576 -0.861272
2010-09-03 06:38:26 51°14.203 2°55.363 20.7583 0.333203 2.016429 -0.861272
2010-09-03 06:38:30 51°14.212 2°55.356 20.743 0.333099 2.015829 -0.93092
2010-09-03 06:38:35 51°14.223 2°55.347 20.7484 0.333099 2.015829 -0.93092
2010-09-03 06:38:40 51°14.235 2°55.339 20.7426 0.333099 2.015864 -0.93092
2010-09-03 06:38:46 51°14.249 2°55.328 20.7529 0.333099 2.015864 -0.861272
2010-09-03 06:38:50 51°14.258 2°55.321 20.7579 0.333099 2.015899 -0.896096
2010-09-03 06:38:55 51°14.269 2°55.312 20.7603 0.333099 2.015933 -0.861272
2010-09-03 06:39:00 51°14.281 2°55.303 20.7527 0.333099 2.015933 -0.861272
2010-09-03 06:39:05 51°14.292 2°55.294 20.7495 0.333099 2.015933 -0.861272
2010-09-03 06:39:10 51°14.304 2°55.285 20.7574 0.333099 2.016002 -0.826448
2010-09-03 06:39:15 51°14.315 2°55.275 20.7582 0.333099 2.016002 -0.896096
2010-09-03 06:39:20 51°14.327 2°55.266 20.748 0.333099 2.016037 -0.861272
2010-09-03 06:39:25 51°14.338 2°55.255 20.7683 0.333099 2.016072 -0.861272
2010-09-03 06:39:30 51°14.349 2°55.244 20.7478 0.333099 2.016072 -0.896096
2010-09-03 06:39:36 51°14.362 2°55.231 20.7379 0.333099 2.016072 -0.896096
2010-09-03 06:39:40 51°14.371 2°55.223 20.7554 0.333099 2.016072 -0.896096
2010-09-03 06:39:45 51°14.381 2°55.212 20.7623 0.333099 2.016106 -0.896096
2010-09-03 06:39:50 51°14.392 2°55.2 20.7642 0.333099 2.016141 -0.896096
2010-09-03 06:39:55 51°14.402 2°55.188 20.7645 0.333099 2.016141 -0.896096
2010-09-03 06:40:00 51°14.413 2°55.177 20.7754 0.333099 2.016175 -0.896096
2010-09-03 06:40:06 51°14.425 2°55.162 20.7653 0.333099 2.016175 -0.896096
2010-09-03 06:40:10 51°14.433 2°55.152 20.7587 0.333099 2.016244 -0.896096
2010-09-03 06:40:16 51°14.444 2°55.136 20.7597 0.333099 2.016279 -0.896096
2010-09-03 06:40:20 51°14.452 2°55.126 20.7357 0.333099 2.016244 -0.861272
2010-09-03 06:40:26 51°14.463 2°55.11 20.721 0.333099 2.016244 -0.896096
2010-09-03 06:40:30 51°14.471 2°55.099 20.7289 0.333099 2.016244 -0.896096
2010-09-03 06:40:35 51°14.481 2°55.086 20.7396 0.333099 2.016244 -0.896096
2010-09-03 06:40:40 51°14.491 2°55.073 20.7062 0.333099 2.016279 -0.861272
2010-09-03 06:40:46 51°14.503 2°55.059 20.7157 0.333099 2.016279 -0.896096
2010-09-03 06:40:50 51°14.511 2°55.05 20.739 0.333099 2.016279 -0.896096
2010-09-03 06:40:55 51°14.522 2°55.038 20.7296 0.333099 2.016314 -0.93092
2010-09-03 06:41:00 51°14.533 2°55.027 20.7114 0.333099 2.016348 -0.896096
2010-09-03 06:41:06 51°14.546 2°55.014 20.7078 0.333099 2.016348 -0.896096
2010-09-03 06:41:10 51°14.556 2°55.006 20.7531 0.333099 2.016383 -0.861272
2010-09-03 06:41:15 51°14.567 2°54.997 20.7619 0.333099 2.016383 -0.896096
2010-09-03 06:41:20 51°14.579 2°54.987 20.76 0.333099 2.016383 -0.861272
2010-09-03 06:41:26 51°14.594 2°54.973 20.761 0.333099 2.016452 -0.896096
2010-09-03 06:41:30 51°14.604 2°54.963 20.7488 0.333099 2.016487 -0.896096
2010-09-03 06:41:34 51°14.614 2°54.953 20.7455 0.333099 2.016487 -0.896096
2010-09-03 06:41:40 51°14.629 2°54.936 20.7378 0.333099 2.016487 -0.861272
2010-09-03 06:41:45 51°14.641 2°54.92 20.7196 0.333099 2.016487 -0.861272
2010-09-03 06:41:50 51°14.654 2°54.904 20.6817 0.333099 2.016487 -0.861272
2010-09-03 06:41:55 51°14.667 2°54.888 20.659 0.333099 2.016521 -0.861272
2010-09-03 06:42:00 51°14.681 2°54.872 20.6776 0.333099 2.016556 -0.896096
2010-09-03 06:42:06 51°14.697 2°54.852 20.6684 0.333099 2.016556 -0.896096
2010-09-03 06:42:10 51°14.708 2°54.839 20.7073 0.333099 2.016487 -0.896096
2010-09-03 06:42:16 51°14.724 2°54.819 20.7105 0.332995 2.015921 -0.896096
2010-09-03 06:42:20 51°14.735 2°54.806 20.7344 0.333099 2.01666 -0.93092
2010-09-03 06:42:25 51°14.748 2°54.788 20.7213 0.333099 2.016764 -0.896096
2010-09-03 06:42:30 51°14.76 2°54.769 20.7192 0.333099 2.016833 -0.861272
2010-09-03 06:42:35 51°14.772 2°54.749 20.7036 0.333099 2.016833 -0.861272
2010-09-03 06:42:40 51°14.784 2°54.729 20.6912 0.332995 2.016164 -0.861272
2010-09-03 06:42:46 51°14.797 2°54.705 20.6592 0.332995 2.016129 -0.896096
2010-09-03 06:42:50 51°14.806 2°54.689 20.6699 0.333099 2.016798 -0.93092
2010-09-03 06:42:55 51°14.818 2°54.669 20.6434 0.332995 2.016129 -0.861272
2010-09-03 06:43:00 51°14.83 2°54.65 20.6626 0.332995 2.016094 -0.861272
2010-09-03 06:43:06 51°14.846 2°54.628 20.6519 0.332995 2.016094 -0.861272
2010-09-03 06:43:10 51°14.856 2°54.614 20.6939 0.332995 2.016129 -0.861272
2010-09-03 06:43:15 51°14.87 2°54.597 20.6997 0.332995 2.016129 -0.896096
2010-09-03 06:43:20 51°14.884 2°54.58 20.7057 0.332995 2.016268 -0.896096
2010-09-03 06:43:26 51°14.901 2°54.56 20.7122 0.332995 2.016302 -0.861272
2010-09-03 06:43:30 51°14.912 2°54.547 20.7116 0.332995 2.016406 -0.861272
2010-09-03 06:43:35 51°14.926 2°54.531 20.69 0.332995 2.016406 -0.861272
2010-09-03 06:43:40 51°14.94 2°54.514 20.6998 0.332995 2.016475 -0.861272
2010-09-03 06:43:45 51°14.954 2°54.497 20.7241 0.332995 2.016441 -0.861272
2010-09-03 06:43:50 51°14.968 2°54.48 20.6795 0.332995 2.016441 -0.896096
2010-09-03 06:43:56 51°14.984 2°54.459 20.7124 0.332995 2.016441 -0.861272
2010-09-03 06:44:00 51°14.995 2°54.446 20.6939 0.332995 2.016441 -0.861272
2010-09-03 06:44:05 51°15.009 2°54.428 20.7141 0.332995 2.016441 -0.861272
2010-09-03 06:44:10 51°15.023 2°54.412 20.7069 0.332995 2.016475 -0.896096
2010-09-03 06:44:15 51°15.037 2°54.395 20.6871 0.332995 2.016544 -0.896096
2010-09-03 06:44:20 51°15.052 2°54.379 20.7066 0.332995 2.016579 -0.896096
2010-09-03 06:44:26 51°15.069 2°54.359 20.7127 0.332995 2.016718 -0.896096
2010-09-03 06:44:30 51°15.08 2°54.346 20.7107 0.332995 2.016683 -0.896096
2010-09-03 06:44:36 51°15.098 2°54.326 20.6873 0.332995 2.016683 -0.896096
2010-09-03 06:44:40 51°15.109 2°54.313 20.7141 0.332995 2.016787 -0.896096
2010-09-03 06:44:45 51°15.124 2°54.297 20.7094 0.332995 2.016752 -0.861272
2010-09-03 06:44:50 51°15.138 2°54.281 20.7068 0.332995 2.016752 -0.896096
2010-09-03 06:44:55 51°15.153 2°54.265 20.7025 0.332995 2.016752 -0.896096
2010-09-03 06:45:00 51°15.168 2°54.249 20.7176 0.332995 2.016718 -0.896096
2010-09-03 06:45:06 51°15.185 2°54.229 20.7033 0.332995 2.016718 -0.896096
2010-09-03 06:45:10 51°15.197 2°54.216 20.7022 0.332995 2.016752 -0.861272
2010-09-03 06:45:15 51°15.211 2°54.2 20.717 0.332995 2.016787 -0.861272
2010-09-03 06:45:20 51°15.226 2°54.184 20.7089 0.332995 2.016856 -0.896096
2010-09-03 06:45:26 51°15.243 2°54.165 20.7098 0.332995 2.016925 -0.896096
2010-09-03 06:45:30 51°15.255 2°54.152 20.711 0.332995 2.016891 -0.896096
2010-09-03 06:45:35 51°15.27 2°54.136 20.7187 0.332995 2.016891 -0.896096
2010-09-03 06:45:40 51°15.284 2°54.12 20.7063 0.332995 2.016995 -0.861272
2010-09-03 06:45:46 51°15.302 2°54.101 20.7177 0.332995 2.016995 -0.896096
2010-09-03 06:45:50 51°15.313 2°54.089 20.7127 0.332995 2.016995 -0.896096
2010-09-03 06:45:55 51°15.328 2°54.072 20.7187 0.332995 2.017029 -0.896096
2010-09-03 06:46:00 51°15.343 2°54.056 20.7018 0.332995 2.017064 -0.861272
2010-09-03 06:46:05 51°15.357 2°54.041 20.7157 0.332995 2.017064 -0.861272
2010-09-03 06:46:10 51°15.372 2°54.024 20.7071 0.332995 2.017133 -0.861272
2010-09-03 06:46:15 51°15.386 2°54.008 20.7138 0.332995 2.017133 -0.93092
2010-09-03 06:46:20 51°15.401 2°53.992 20.7067 0.332995 2.017133 -0.896096
2010-09-03 06:46:26 51°15.418 2°53.973 20.6936 0.332995 2.017133 -0.861272
2010-09-03 06:46:30 51°15.43 2°53.96 20.716 0.332995 2.017202 -0.93092
2010-09-03 06:46:35 51°15.444 2°53.944 20.7153 0.332995 2.017202 -0.93092
2010-09-03 06:46:40 51°15.459 2°53.927 20.7159 0.332995 2.017237 -0.896096
2010-09-03 06:46:46 51°15.476 2°53.908 20.6989 0.332995 2.017272 -0.896096
2010-09-03 06:46:50 51°15.488 2°53.895 20.7164 0.332891 2.016602 -0.896096
2010-09-03 06:46:55 51°15.502 2°53.879 20.7015 0.332995 2.017306 -0.896096
2010-09-03 06:47:01 51°15.519 2°53.859 20.7098 0.332995 2.017341 -0.861272
2010-09-03 06:47:06 51°15.534 2°53.843 20.7137 0.332995 2.017341 -0.861272
2010-09-03 06:47:10 51°15.546 2°53.831 20.7192 0.332995 2.01741 -0.861272
2010-09-03 06:47:15 51°15.56 2°53.815 20.7206 0.332995 2.017376 -0.861272
2010-09-03 06:47:20 51°15.575 2°53.799 20.692 0.332995 2.01748 -0.896096
2010-09-03 06:47:26 51°15.592 2°53.78 20.7237 0.332995 2.017445 -0.896096
2010-09-03 06:47:30 51°15.604 2°53.767 20.7203 0.332891 2.01681 -0.896096
2010-09-03 06:47:35 51°15.618 2°53.751 20.7176 0.332891 2.01681 -0.896096
2010-09-03 06:47:40 51°15.633 2°53.735 20.714 0.332995 2.017514 -0.861272
2010-09-03 06:47:46 51°15.65 2°53.716 20.701 0.332995 2.017549 -0.93092
2010-09-03 06:47:50 51°15.661 2°53.703 20.7152 0.332891 2.016949 -0.896096
2010-09-03 06:47:55 51°15.676 2°53.688 20.7045 0.332891 2.016914 -0.861272
2010-09-03 06:48:00 51°15.691 2°53.672 20.7132 0.332891 2.016983 -0.861272
2010-09-03 06:48:06 51°15.709 2°53.654 20.7097 0.332891 2.016983 -0.861272
2010-09-03 06:48:10 51°15.721 2°53.642 20.7118 0.332891 2.016949 -0.861272
2010-09-03 06:48:15 51°15.736 2°53.627 20.7141 0.332891 2.017018 -0.861272
2010-09-03 06:48:20 51°15.751 2°53.612 20.7046 0.332891 2.017053 -0.861272
2010-09-03 06:48:26 51°15.769 2°53.594 20.716 0.332995 2.017757 -0.861272
2010-09-03 06:48:30 51°15.781 2°53.584 20.7123 0.332891 2.017087 -0.896096
2010-09-03 06:48:35 51°15.796 2°53.57 20.7126 0.332891 2.017087 -0.896096
2010-09-03 06:48:40 51°15.812 2°53.556 20.7229 0.332995 2.017792 -0.861272
2010-09-03 06:48:46 51°15.831 2°53.54 20.7182 0.332891 2.017122 -0.896096
2010-09-03 06:48:50 51°15.843 2°53.529 20.716 0.332891 2.017157 -0.896096
2010-09-03 06:48:55 51°15.859 2°53.516 20.7181 0.332891 2.017226 -0.861272
2010-09-03 06:49:00 51°15.875 2°53.503 20.685 0.332891 2.017226 -0.861272
2010-09-03 06:49:06 51°15.893 2°53.487 20.7005 0.332891 2.017226 -0.861272
2010-09-03 06:49:10 51°15.906 2°53.477 20.7053 0.332891 2.017261 -0.861272
2010-09-03 06:49:15 51°15.922 2°53.466 20.7058 0.332891 2.01733 -0.861272
2010-09-03 06:49:20 51°15.938 2°53.455 20.7013 0.332891 2.017261 -0.861272
2010-09-03 06:49:26 51°15.958 2°53.442 20.7135 0.332891 2.017365 -0.861272
2010-09-03 06:49:30 51°15.971 2°53.434 20.7238 0.332891 2.01733 -0.896096
2010-09-03 06:49:34 51°15.984 2°53.426 20.711 0.332891 2.01733 -0.896096
2010-09-03 06:49:41 51°16.008 2°53.413 20.7207 0.332891 2.017469 -0.896096
2010-09-03 06:49:46 51°16.025 2°53.403 20.708 0.332891 2.017434 -0.896096
2010-09-03 06:49:50 51°16.038 2°53.395 20.7264 0.332891 2.017469 -0.896096
2010-09-03 06:49:55 51°16.055 2°53.385 20.7238 0.332891 2.017503 -0.896096
2010-09-03 06:50:00 51°16.072 2°53.375 20.7173 0.332786 2.016834 -0.896096
2010-09-03 06:50:06 51°16.092 2°53.364 20.7186 0.332786 2.016834 -0.896096
2010-09-03 06:50:10 51°16.105 2°53.356 20.7268 0.332891 2.017573 -0.896096
2010-09-03 06:50:14 51°16.118 2°53.348 20.7267 0.332891 2.017573 -0.896096
2010-09-03 06:50:20 51°16.139 2°53.336 20.7183 0.332891 2.017607 -0.861272
2010-09-03 06:50:25 51°16.156 2°53.327 20.7269 0.332891 2.017607 -0.896096
2010-09-03 06:50:30 51°16.172 2°53.317 20.7126 0.332891 2.017642 -0.896096
2010-09-03 06:50:35 51°16.189 2°53.308 20.7292 0.332891 2.017642 -0.896096
2010-09-03 06:50:40 51°16.206 2°53.298 20.7281 0.332786 2.016972 -0.896096
2010-09-03 06:50:46 51°16.226 2°53.286 20.7155 0.332891 2.017746 -0.896096
2010-09-03 06:50:50 51°16.24 2°53.278 20.718 0.332786 2.017111 -0.93092
2010-09-03 06:50:55 51°16.257 2°53.268 20.727 0.332891 2.017746 -0.896096
2010-09-03 06:51:00 51°16.274 2°53.258 20.7258 0.332786 2.017076 -0.896096
2010-09-03 06:51:05 51°16.29 2°53.249 20.7271 0.332786 2.017076 -0.896096
2010-09-03 06:51:10 51°16.307 2°53.239 20.7107 0.332786 2.017111 -0.896096
2010-09-03 06:51:15 51°16.324 2°53.23 20.704 0.332786 2.01718 -0.861272
2010-09-03 06:51:20 51°16.341 2°53.221 20.7171 0.332786 2.017076 -0.861272
2010-09-03 06:51:25 51°16.357 2°53.211 20.7256 0.332786 2.01718 -0.896096
2010-09-03 06:51:30 51°16.375 2°53.203 20.7068 0.332786 2.017146 -0.896096
2010-09-03 06:51:35 51°16.392 2°53.194 20.7285 0.332786 2.017146 -0.896096
2010-09-03 06:51:40 51°16.409 2°53.186 20.704 0.332786 2.01718 -0.861272
2010-09-03 06:51:46 51°16.43 2°53.177 20.7257 0.332786 2.01725 -0.861272
2010-09-03 06:51:50 51°16.444 2°53.173 20.7148 0.332786 2.01718 -0.896096
2010-09-03 06:51:55 51°16.461 2°53.166 20.7278 0.332786 2.01725 -0.861272
2010-09-03 06:52:01 51°16.483 2°53.159 20.7108 0.332786 2.01725 -0.861272
2010-09-03 06:52:06 51°16.5 2°53.153 20.7256 0.332786 2.01725 -0.861272
2010-09-03 06:52:10 51°16.515 2°53.148 20.7201 0.332786 2.017319 -0.896096
2010-09-03 06:52:15 51°16.533 2°53.143 20.7332 0.332786 2.017319 -0.896096
2010-09-03 06:52:20 51°16.551 2°53.138 20.7191 0.332786 2.017319 -0.896096
2010-09-03 06:52:26 51°16.572 2°53.132 20.727 0.332786 2.017354 -0.896096
2010-09-03 06:52:30 51°16.587 2°53.128 20.7175 0.332786 2.017354 -0.861272
2010-09-03 06:52:35 51°16.605 2°53.123 20.7368 0.332786 2.017354 -0.861272
2010-09-03 06:52:40 51°16.623 2°53.118 20.7297 0.332682 2.016718 -0.896096
2010-09-03 06:52:46 51°16.644 2°53.112 20.736 0.332786 2.017458 -0.896096
2010-09-03 06:52:50 51°16.659 2°53.109 20.6964 0.332786 2.017423 -0.896096
2010-09-03 06:52:55 51°16.676 2°53.104 20.7276 0.332786 2.017458 -0.861272
2010-09-03 06:53:00 51°16.694 2°53.1 20.7021 0.332682 2.016753 -0.896096
2010-09-03 06:53:05 51°16.712 2°53.096 20.7328 0.332682 2.016753 -0.896096
2010-09-03 06:53:10 51°16.73 2°53.094 20.7065 0.332786 2.017458 -0.896096
2010-09-03 06:53:15 51°16.748 2°53.09 20.7274 0.332786 2.017458 -0.861272
2010-09-03 06:53:20 51°16.767 2°53.087 20.7018 0.332786 2.017492 -0.896096
2010-09-03 06:53:26 51°16.789 2°53.084 20.7159 0.332682 2.016857 -0.896096
2010-09-03 06:53:30 51°16.803 2°53.084 20.7183 0.332682 2.016753 -0.896096
2010-09-03 06:53:35 51°16.822 2°53.084 20.7265 0.332682 2.016753 -0.896096
2010-09-03 06:53:40 51°16.841 2°53.085 20.7172 0.332682 2.016822 -0.896096
2010-09-03 06:53:45 51°16.859 2°53.086 20.7218 0.332682 2.016822 -0.896096
2010-09-03 06:53:50 51°16.877 2°53.087 20.731 0.332682 2.016857 -0.861272
2010-09-03 06:53:55 51°16.895 2°53.089 20.7393 0.332682 2.016927 -0.861272
2010-09-03 06:54:00 51°16.914 2°53.092 20.716 0.332682 2.016822 -0.93092
2010-09-03 06:54:06 51°16.935 2°53.094 20.742 0.332682 2.016822 -0.93092
2010-09-03 06:54:10 51°16.95 2°53.098 20.7155 0.332682 2.016857 -0.896096
2010-09-03 06:54:14 51°16.965 2°53.101 20.7042 0.332682 2.016927 -0.861272
2010-09-03 06:54:20 51°16.986 2°53.106 20.725 0.332682 2.016822 -0.896096
2010-09-03 06:54:26 51°17.007 2°53.114 20.7085 0.332578 2.016187 -0.896096
2010-09-03 06:54:30 51°17.022 2°53.12 20.7281 0.332682 2.016927 -0.896096
2010-09-03 06:54:35 51°17.039 2°53.129 20.7216 0.332682 2.016927 -0.896096
2010-09-03 06:54:40 51°17.057 2°53.139 20.7275 0.332682 2.016927 -0.861272
2010-09-03 06:54:46 51°17.078 2°53.151 20.7367 0.332682 2.016961 -0.896096
2010-09-03 06:54:50 51°17.091 2°53.16 20.742 0.332682 2.017031 -0.896096
2010-09-03 06:54:55 51°17.108 2°53.172 20.7294 0.332578 2.016361 -0.896096
2010-09-03 06:55:00 51°17.125 2°53.183 20.7382 0.332682 2.017031 -0.861272
2010-09-03 06:55:06 51°17.146 2°53.198 20.7331 0.332682 2.017031 -0.861272
2010-09-03 06:55:10 51°17.159 2°53.208 20.7419 0.332682 2.017031 -0.896096
2010-09-03 06:55:15 51°17.176 2°53.222 20.7344 0.332578 2.016326 -0.896096
2010-09-03 06:55:20 51°17.192 2°53.236 20.7448 0.332682 2.017031 -0.861272
2010-09-03 06:55:26 51°17.211 2°53.253 20.7374 0.332578 2.016395 -0.861272
2010-09-03 06:55:30 51°17.224 2°53.265 20.7398 0.332578 2.016395 -0.93092
2010-09-03 06:55:36 51°17.244 2°53.282 20.7383 0.332578 2.016395 -0.93092
2010-09-03 06:55:40 51°17.256 2°53.294 20.7507 0.332578 2.016465 -0.861272
2010-09-03 06:55:45 51°17.272 2°53.308 20.7501 0.332578 2.016465 -0.896096
2010-09-03 06:55:50 51°17.288 2°53.323 20.7422 0.332578 2.016499 -0.896096
2010-09-03 06:55:55 51°17.304 2°53.338 20.7322 0.332578 2.016499 -0.896096
2010-09-03 06:56:00 51°17.32 2°53.353 20.7498 0.332578 2.016499 -0.896096
2010-09-03 06:56:06 51°17.34 2°53.371 20.7402 0.332578 2.016499 -0.896096
2010-09-03 06:56:10 51°17.353 2°53.383 20.7472 0.332578 2.016534 -0.896096
2010-09-03 06:56:15 51°17.37 2°53.397 20.7532 0.332578 2.016534 -0.861272
2010-09-03 06:56:21 51°17.39 2°53.415 20.7513 0.332578 2.016499 -0.861272
2010-09-03 06:56:26 51°17.406 2°53.43 20.75 0.332473 2.015864 -0.896096
2010-09-03 06:56:30 51°17.42 2°53.442 20.7345 0.332578 2.016638 -0.861272
2010-09-03 06:56:35 51°17.436 2°53.456 20.7562 0.332578 2.016638 -0.861272
2010-09-03 06:56:40 51°17.453 2°53.471 20.7361 0.332473 2.015933 -0.93092
2010-09-03 06:56:46 51°17.473 2°53.488 20.7565 0.332473 2.015933 -0.896096
2010-09-03 06:56:50 51°17.487 2°53.5 20.7486 0.332578 2.016638 -0.861272
2010-09-03 06:56:55 51°17.504 2°53.515 20.7561 0.332578 2.016707 -0.896096
2010-09-03 06:57:00 51°17.52 2°53.529 20.7418 0.332473 2.015933 -0.861272
2010-09-03 06:57:06 51°17.541 2°53.547 20.7177 0.332473 2.015933 -0.861272
2010-09-03 06:57:10 51°17.554 2°53.559 20.7437 0.332578 2.016673 -0.896096
2010-09-03 06:57:14 51°17.567 2°53.573 20.741 0.332473 2.015864 -0.896096
2010-09-03 06:57:20 51°17.586 2°53.592 20.7354 0.332473 2.015933 -0.896096
2010-09-03 06:57:25 51°17.602 2°53.61 20.7503 0.332473 2.015933 -0.861272
2010-09-03 06:57:30 51°17.618 2°53.627 20.7481 0.332473 2.015968 -0.861272
2010-09-03 06:57:35 51°17.633 2°53.645 20.7526 0.332473 2.015968 -0.861272
2010-09-03 06:57:40 51°17.648 2°53.663 20.77 0.332473 2.015968 -0.896096
2010-09-03 06:57:46 51°17.667 2°53.685 20.7633 0.332473 2.015968 -0.861272
2010-09-03 06:57:50 51°17.679 2°53.7 20.7593 0.332369 2.015332 -0.896096
2010-09-03 06:57:55 51°17.695 2°53.717 20.7661 0.332473 2.016003 -0.896096
2010-09-03 06:58:00 51°17.711 2°53.734 20.756 0.332473 2.016037 -0.861272
2010-09-03 06:58:06 51°17.73 2°53.753 20.7633 0.332473 2.016037 -0.861272
2010-09-03 06:58:10 51°17.743 2°53.766 20.7422 0.332473 2.015968 -0.861272
2010-09-03 06:58:16 51°17.763 2°53.786 20.758 0.332473 2.016003 -0.861272
2010-09-03 06:58:20 51°17.775 2°53.799 20.7348 0.332473 2.016037 -0.861272
2010-09-03 06:58:26 51°17.795 2°53.819 20.7506 0.332369 2.015263 -0.896096
2010-09-03 06:58:30 51°17.807 2°53.833 20.7316 0.332369 2.015298 -0.896096
2010-09-03 06:58:35 51°17.823 2°53.849 20.7534 0.332369 2.015298 -0.896096
2010-09-03 06:58:40 51°17.839 2°53.868 20.7554 0.332473 2.015864 -0.896096
2010-09-03 06:58:46 51°17.858 2°53.889 20.7596 0.332369 2.015402 -0.861272
2010-09-03 06:58:50 51°17.87 2°53.904 20.7523 0.332369 2.015263 -0.861272
2010-09-03 06:58:55 51°17.886 2°53.921 20.7518 0.332369 2.015298 -0.896096
2010-09-03 06:59:00 51°17.901 2°53.939 20.7429 0.332369 2.015298 -0.93092
2010-09-03 06:59:06 51°17.92 2°53.96 20.7637 0.332369 2.015298 -0.93092
2010-09-03 06:59:10 51°17.932 2°53.975 20.7495 0.332369 2.015263 -0.896096
2010-09-03 06:59:15 51°17.948 2°53.992 20.7692 0.332369 2.015263 -0.861272
2010-09-03 06:59:20 51°17.963 2°54.01 20.7615 0.332369 2.015263 -0.896096
2010-09-03 06:59:26 51°17.981 2°54.032 20.758 0.332369 2.015228 -0.896096
2010-09-03 06:59:30 51°17.994 2°54.046 20.7456 0.332369 2.015263 -0.861272
2010-09-03 06:59:35 51°18.009 2°54.064 20.7649 0.332369 2.015263 -0.861272
2010-09-03 06:59:40 51°18.025 2°54.081 20.7505 0.332265 2.014558 -0.861272
2010-09-03 06:59:46 51°18.043 2°54.104 20.7451 0.332369 2.015159 -0.861272
2010-09-03 06:59:50 51°18.055 2°54.119 20.77 0.332369 2.015263 -0.896096
2010-09-03 06:59:55 51°18.07 2°54.138 20.7505 0.332369 2.015194 -0.896096
2010-09-03 07:00:00 51°18.085 2°54.156 20.7656 0.332369 2.015298 -0.896096
2010-09-03 07:00:06 51°18.103 2°54.179 20.7578 0.332369 2.015298 -0.896096
2010-09-03 07:00:10 51°18.115 2°54.194 20.7649 0.332265 2.014558 -0.896096
2010-09-03 07:00:15 51°18.13 2°54.214 20.7672 0.332265 2.014593 -0.93092
2010-09-03 07:00:20 51°18.144 2°54.233 20.7647 0.332369 2.015263 -0.861272
2010-09-03 07:00:25 51°18.159 2°54.254 20.766 0.332265 2.014455 -0.896096
2010-09-03 07:00:30 51°18.173 2°54.273 20.7755 0.332369 2.015159 -0.93092
2010-09-03 07:00:35 51°18.188 2°54.293 20.7651 0.332369 2.015159 -0.93092
2010-09-03 07:00:40 51°18.202 2°54.312 20.7692 0.332265 2.014524 -0.896096
2010-09-03 07:00:46 51°18.22 2°54.336 20.7718 0.332265 2.014558 -0.896096
2010-09-03 07:00:50 51°18.231 2°54.352 20.774 0.332265 2.014489 -0.896096
2010-09-03 07:00:55 51°18.246 2°54.371 20.7731 0.332265 2.014558 -0.896096
2010-09-03 07:01:01 51°18.264 2°54.395 20.7632 0.332265 2.014524 -0.861272
2010-09-03 07:01:06 51°18.278 2°54.416 20.7824 0.332265 2.014524 -0.861272
2010-09-03 07:01:10 51°18.29 2°54.431 20.768 0.332265 2.014524 -0.861272
2010-09-03 07:01:15 51°18.304 2°54.45 20.7724 0.332265 2.014489 -0.861272
2010-09-03 07:01:20 51°18.319 2°54.47 20.7792 0.332265 2.014558 -0.896096
2010-09-03 07:01:26 51°18.336 2°54.494 20.7725 0.332265 2.014524 -0.896096
2010-09-03 07:01:30 51°18.348 2°54.51 20.7794 0.332265 2.014593 -0.861272
2010-09-03 07:01:35 51°18.362 2°54.529 20.7692 0.332265 2.014593 -0.861272
2010-09-03 07:01:40 51°18.377 2°54.548 20.7741 0.332265 2.014558 -0.896096
2010-09-03 07:01:46 51°18.394 2°54.572 20.771 0.332265 2.014524 -0.896096
2010-09-03 07:01:50 51°18.407 2°54.588 20.7846 0.332265 2.014524 -0.896096
2010-09-03 07:01:55 51°18.421 2°54.606 20.7817 0.332265 2.014558 -0.896096
2010-09-03 07:02:00 51°18.436 2°54.626 20.786 0.332265 2.014628 -0.896096
2010-09-03 07:02:05 51°18.451 2°54.644 20.7879 0.332265 2.014628 -0.896096
2010-09-03 07:02:10 51°18.466 2°54.662 20.78 0.332161 2.013923 -0.896096
2010-09-03 07:02:15 51°18.482 2°54.68 20.7881 0.332161 2.013958 -0.896096
2010-09-03 07:02:20 51°18.497 2°54.697 20.7687 0.332161 2.013923 -0.861272
2010-09-03 07:02:25 51°18.513 2°54.715 20.7837 0.332161 2.013888 -0.896096
2010-09-03 07:02:30 51°18.529 2°54.732 20.7788 0.332161 2.013958 -0.896096
2010-09-03 07:02:35 51°18.544 2°54.749 20.7749 0.332161 2.013958 -0.896096
2010-09-03 07:02:40 51°18.56 2°54.767 20.7791 0.332161 2.013958 -0.896096
2010-09-03 07:02:46 51°18.579 2°54.787 20.7669 0.332161 2.013958 -0.896096
2010-09-03 07:02:50 51°18.592 2°54.801 20.7847 0.332161 2.013958 -0.896096
2010-09-03 07:02:55 51°18.608 2°54.818 20.7647 0.332161 2.013958 -0.896096
2010-09-03 07:03:01 51°18.627 2°54.838 20.7868 0.332265 2.014662 -0.896096
2010-09-03 07:03:06 51°18.642 2°54.856 20.7668 0.332265 2.014662 -0.896096
2010-09-03 07:03:10 51°18.655 2°54.869 20.783 0.332161 2.013958 -0.896096
2010-09-03 07:03:15 51°18.671 2°54.887 20.7828 0.332161 2.013992 -0.896096
2010-09-03 07:03:21 51°18.69 2°54.907 20.774 0.332161 2.014027 -0.896096
2010-09-03 07:03:26 51°18.705 2°54.925 20.782 0.332161 2.014027 -0.896096
2010-09-03 07:03:30 51°18.718 2°54.939 20.7837 0.332161 2.014027 -0.896096
2010-09-03 07:03:35 51°18.734 2°54.956 20.7887 0.332161 2.014027 -0.896096
2010-09-03 07:03:40 51°18.749 2°54.973 20.779 0.332161 2.014062 -0.861272
2010-09-03 07:03:46 51°18.768 2°54.994 20.7974 0.332161 2.014027 -0.93092
2010-09-03 07:03:50 51°18.781 2°55.008 20.7751 0.332161 2.014062 -0.896096
2010-09-03 07:03:54 51°18.794 2°55.022 20.7857 0.332056 2.013426 -0.896096
2010-09-03 07:04:00 51°18.813 2°55.042 20.7861 0.332161 2.014096 -0.896096
2010-09-03 07:04:05 51°18.829 2°55.059 20.7842 0.332161 2.014096 -0.896096
2010-09-03 07:04:10 51°18.844 2°55.077 20.7802 0.332161 2.014131 -0.861272
2010-09-03 07:04:15 51°18.86 2°55.095 20.7864 0.332161 2.014131 -0.861272
2010-09-03 07:04:20 51°18.875 2°55.112 20.7871 0.332161 2.0142 -0.896096
2010-09-03 07:04:25 51°18.891 2°55.129 20.7907 0.332056 2.013495 -0.861272
2010-09-03 07:04:30 51°18.907 2°55.146 20.7945 0.332056 2.013495 -0.896096
2010-09-03 07:04:36 51°18.926 2°55.167 20.7919 0.332056 2.013495 -0.896096
2010-09-03 07:04:40 51°18.939 2°55.181 20.7912 0.332056 2.013495 -0.896096
2010-09-03 07:04:45 51°18.954 2°55.198 20.7902 0.332161 2.014166 -0.896096
2010-09-03 07:04:50 51°18.97 2°55.215 20.79 0.332056 2.013495 -0.896096
2010-09-03 07:04:55 51°18.986 2°55.232 20.7807 0.332056 2.013495 -0.861272
2010-09-03 07:05:00 51°19.002 2°55.249 20.7948 0.332056 2.013495 -0.896096
2010-09-03 07:05:06 51°19.021 2°55.271 20.7871 0.332056 2.013495 -0.896096
2010-09-03 07:05:10 51°19.033 2°55.284 20.7991 0.332056 2.01353 -0.896096
2010-09-03 07:05:14 51°19.046 2°55.298 20.7851 0.332056 2.01353 -0.896096
2010-09-03 07:05:20 51°19.065 2°55.319 20.7985 0.332056 2.01353 -0.896096
2010-09-03 07:05:26 51°19.084 2°55.34 20.7925 0.332056 2.013565 -0.861272
2010-09-03 07:05:30 51°19.096 2°55.354 20.7958 0.332161 2.0142 -0.896096
2010-09-03 07:05:35 51°19.112 2°55.371 20.7966 0.332161 2.0142 -0.896096
2010-09-03 07:05:40 51°19.128 2°55.389 20.8026 0.332056 2.01353 -0.93092
2010-09-03 07:05:46 51°19.146 2°55.41 20.7876 0.332056 2.013565 -0.896096
2010-09-03 07:05:50 51°19.159 2°55.425 20.8025 0.332056 2.013495 -0.861272
2010-09-03 07:05:55 51°19.175 2°55.442 20.8039 0.332056 2.013565 -0.896096
2010-09-03 07:06:00 51°19.19 2°55.46 20.792 0.332056 2.01353 -0.896096
2010-09-03 07:06:06 51°19.209 2°55.481 20.7964 0.332056 2.01353 -0.896096
2010-09-03 07:06:10 51°19.222 2°55.496 20.8021 0.332056 2.013565 -0.896096
2010-09-03 07:06:16 51°19.241 2°55.517 20.8073 0.332056 2.01353 -0.896096
2010-09-03 07:06:20 51°19.253 2°55.53 20.8038 0.332056 2.013565 -0.861272
2010-09-03 07:06:25 51°19.269 2°55.548 20.796 0.332056 2.013565 -0.896096
2010-09-03 07:06:30 51°19.285 2°55.566 20.8119 0.332056 2.013599 -0.896096
2010-09-03 07:06:35 51°19.3 2°55.583 20.803 0.332056 2.013599 -0.896096
2010-09-03 07:06:40 51°19.316 2°55.601 20.8056 0.332056 2.013599 -0.896096
2010-09-03 07:06:46 51°19.335 2°55.622 20.7943 0.332056 2.013565 -0.861272
2010-09-03 07:06:50 51°19.347 2°55.637 20.8105 0.331952 2.012964 -0.896096
2010-09-03 07:06:55 51°19.363 2°55.655 20.7976 0.332056 2.013599 -0.896096
2010-09-03 07:07:00 51°19.378 2°55.673 20.8089 0.332056 2.013565 -0.896096
2010-09-03 07:07:06 51°19.397 2°55.695 20.7999 0.332056 2.013565 -0.896096
2010-09-03 07:07:10 51°19.409 2°55.71 20.8097 0.331952 2.012929 -0.861272
2010-09-03 07:07:15 51°19.424 2°55.729 20.8051 0.331952 2.012895 -0.896096
2010-09-03 07:07:20 51°19.44 2°55.747 20.8113 0.331952 2.012964 -0.896096
2010-09-03 07:07:26 51°19.458 2°55.77 20.8118 0.331952 2.012929 -0.896096
2010-09-03 07:07:30 51°19.47 2°55.784 20.813 0.331952 2.012929 -0.896096
2010-09-03 07:07:35 51°19.485 2°55.803 20.8072 0.331952 2.012929 -0.896096
2010-09-03 07:07:40 51°19.501 2°55.821 20.8192 0.331952 2.012929 -0.896096
2010-09-03 07:07:46 51°19.519 2°55.844 20.8195 0.331952 2.012895 -0.896096
2010-09-03 07:07:50 51°19.531 2°55.859 20.8091 0.331952 2.012929 -0.896096
2010-09-03 07:07:55 51°19.547 2°55.878 20.8123 0.331952 2.012964 -0.896096
2010-09-03 07:08:00 51°19.562 2°55.896 20.8119 0.331952 2.012964 -0.896096
2010-09-03 07:08:06 51°19.581 2°55.919 20.8195 0.331952 2.012964 -0.896096
2010-09-03 07:08:10 51°19.593 2°55.933 20.8095 0.331952 2.012999 -0.896096
2010-09-03 07:08:15 51°19.608 2°55.952 20.8117 0.331952 2.012929 -0.861272
2010-09-03 07:08:20 51°19.623 2°55.971 20.8156 0.331952 2.012964 -0.861272
2010-09-03 07:08:26 51°19.642 2°55.993 20.8189 0.331848 2.012328 -0.896096
2010-09-03 07:08:30 51°19.654 2°56.009 20.8235 0.331952 2.012999 -0.896096
2010-09-03 07:08:35 51°19.669 2°56.027 20.8207 0.331952 2.012999 -0.896096
2010-09-03 07:08:40 51°19.684 2°56.046 20.8131 0.331952 2.012964 -0.861272
2010-09-03 07:08:46 51°19.703 2°56.068 20.8216 0.331848 2.012294 -0.896096
2010-09-03 07:08:50 51°19.715 2°56.083 20.8219 0.331952 2.012964 -0.896096
2010-09-03 07:08:55 51°19.73 2°56.101 20.838 0.331848 2.012328 -0.861272
2010-09-03 07:09:00 51°19.746 2°56.12 20.8447 0.331848 2.012294 -0.896096
2010-09-03 07:09:06 51°19.765 2°56.14 20.8261 0.331848 2.012294 -0.896096
2010-09-03 07:09:10 51°19.778 2°56.154 20.8462 0.331952 2.013102 -0.896096
2010-09-03 07:09:15 51°19.794 2°56.17 20.8366 0.331848 2.012432 -0.896096
2010-09-03 07:09:20 51°19.811 2°56.185 20.8314 0.331848 2.012467 -0.896096
2010-09-03 07:09:25 51°19.828 2°56.199 20.8394 0.331848 2.012467 -0.861272
2010-09-03 07:09:30 51°19.845 2°56.213 20.8489 0.331848 2.012467 -0.896096
2010-09-03 07:09:35 51°19.862 2°56.226 20.8288 0.331848 2.012467 -0.896096
2010-09-03 07:09:40 51°19.88 2°56.237 20.8427 0.331952 2.013137 -0.861272
2010-09-03 07:09:46 51°19.901 2°56.25 20.8386 0.331848 2.012467 -0.861272
2010-09-03 07:09:50 51°19.915 2°56.259 20.8402 0.331848 2.012536 -0.93092
2010-09-03 07:09:55 51°19.934 2°56.269 20.8317 0.331848 2.012467 -0.896096
2010-09-03 07:10:01 51°19.955 2°56.28 20.8195 0.331848 2.012467 -0.896096
2010-09-03 07:10:06 51°19.974 2°56.289 20.8293 0.331848 2.012467 -0.896096
2010-09-03 07:10:10 51°19.988 2°56.296 20.8323 0.331743 2.011831 -0.861272
2010-09-03 07:10:15 51°20.007 2°56.305 20.8229 0.331848 2.012467 -0.861272
2010-09-03 07:10:20 51°20.025 2°56.314 20.8376 0.331848 2.012467 -0.896096
2010-09-03 07:10:26 51°20.047 2°56.324 20.8248 0.331848 2.012501 -0.896096
2010-09-03 07:10:30 51°20.061 2°56.331 20.8376 0.331848 2.012432 -0.896096
2010-09-03 07:10:35 51°20.08 2°56.34 20.8298 0.331848 2.012432 -0.896096
2010-09-03 07:10:40 51°20.098 2°56.349 20.8415 0.331848 2.012501 -0.896096
2010-09-03 07:10:46 51°20.12 2°56.36 20.8219 0.331743 2.011866 -0.93092
2010-09-03 07:10:50 51°20.135 2°56.367 20.8389 0.331743 2.011762 -0.896096
2010-09-03 07:10:55 51°20.153 2°56.376 20.8433 0.331848 2.012536 -0.896096
2010-09-03 07:11:00 51°20.171 2°56.385 20.8395 0.331743 2.011831 -0.861272
2010-09-03 07:11:05 51°20.19 2°56.394 20.8327 0.331743 2.011831 -0.861272
2010-09-03 07:11:10 51°20.208 2°56.403 20.8416 0.331848 2.012605 -0.896096
2010-09-03 07:11:15 51°20.227 2°56.412 20.8406 0.331743 2.01197 -0.861272
2010-09-03 07:11:20 51°20.245 2°56.421 20.8389 0.331743 2.01197 -0.896096
2010-09-03 07:11:25 51°20.263 2°56.431 20.8391 0.331743 2.01197 -0.861272
2010-09-03 07:11:30 51°20.282 2°56.44 20.8449 0.331848 2.012675 -0.896096
2010-09-03 07:11:35 51°20.3 2°56.449 20.8407 0.331848 2.012675 -0.896096
2010-09-03 07:11:40 51°20.319 2°56.459 20.8403 0.331743 2.012039 -0.93092
2010-09-03 07:11:46 51°20.34 2°56.469 20.8459 0.331743 2.012108 -0.861272
2010-09-03 07:11:50 51°20.355 2°56.477 20.8519 0.331743 2.012178 -0.861272
2010-09-03 07:11:55 51°20.373 2°56.486 20.8387 0.331743 2.012143 -0.861272
2010-09-03 07:12:01 51°20.396 2°56.497 20.8436 0.331743 2.012212 -0.896096
2010-09-03 07:12:06 51°20.414 2°56.507 20.8554 0.331743 2.012212 -0.896096
2010-09-03 07:12:10 51°20.428 2°56.514 20.8379 0.331743 2.012143 -0.896096
2010-09-03 07:12:15 51°20.447 2°56.523 20.8387 0.331743 2.012212 -0.896096
2010-09-03 07:12:20 51°20.465 2°56.533 20.8535 0.331743 2.012247 -0.896096
2010-09-03 07:12:26 51°20.487 2°56.545 20.8503 0.331743 2.012281 -0.93092
2010-09-03 07:12:30 51°20.501 2°56.553 20.8445 0.331743 2.012316 -0.896096
2010-09-03 07:12:35 51°20.519 2°56.562 20.856 0.331743 2.012316 -0.896096
2010-09-03 07:12:40 51°20.537 2°56.572 20.8571 0.331743 2.012385 -0.896096
2010-09-03 07:12:46 51°20.559 2°56.583 20.8532 0.331743 2.012351 -0.861272
2010-09-03 07:12:50 51°20.574 2°56.591 20.8544 0.331743 2.01242 -0.896096
2010-09-03 07:12:54 51°20.589 2°56.598 20.8439 0.331743 2.012489 -0.896096
2010-09-03 07:13:00 51°20.61 2°56.61 20.8555 0.331743 2.012489 -0.896096
2010-09-03 07:13:05 51°20.628 2°56.62 20.8453 0.331743 2.012489 -0.896096
2010-09-03 07:13:10 51°20.647 2°56.629 20.8473 0.331743 2.012489 -0.861272
2010-09-03 07:13:15 51°20.665 2°56.64 20.8461 0.331639 2.011853 -0.861272
2010-09-03 07:13:20 51°20.683 2°56.65 20.8418 0.331639 2.011853 -0.896096
2010-09-03 07:13:25 51°20.701 2°56.661 20.8599 0.331743 2.012558 -0.861272
2010-09-03 07:13:30 51°20.719 2°56.673 20.8488 0.331639 2.011957 -0.861272
2010-09-03 07:13:36 51°20.74 2°56.687 20.8585 0.331639 2.011957 -0.861272
2010-09-03 07:13:40 51°20.754 2°56.696 20.8513 0.331743 2.012628 -0.896096
2010-09-03 07:13:45 51°20.772 2°56.708 20.861 0.331743 2.012732 -0.896096
2010-09-03 07:13:50 51°20.789 2°56.721 20.8495 0.331743 2.012697 -0.896096
2010-09-03 07:13:55 51°20.807 2°56.733 20.8663 0.331743 2.012732 -0.896096
2010-09-03 07:14:00 51°20.824 2°56.745 20.8572 0.331743 2.012801 -0.861272
2010-09-03 07:14:06 51°20.845 2°56.76 20.8579 0.331743 2.012801 -0.861272
2010-09-03 07:14:10 51°20.859 2°56.77 20.8574 0.331639 2.012165 -0.896096
2010-09-03 07:14:14 51°20.873 2°56.781 20.8621 0.331743 2.012836 -0.93092
2010-09-03 07:14:20 51°20.894 2°56.796 20.8524 0.331639 2.012234 -0.861272
2010-09-03 07:14:26 51°20.914 2°56.813 20.8715 0.331639 2.012269 -0.861272
2010-09-03 07:14:30 51°20.928 2°56.824 20.8662 0.331639 2.012269 -0.896096
2010-09-03 07:14:35 51°20.945 2°56.839 20.8683 0.331639 2.012269 -0.896096
2010-09-03 07:14:40 51°20.962 2°56.853 20.864 0.331639 2.012304 -0.896096
2010-09-03 07:14:46 51°20.982 2°56.87 20.8675 0.331743 2.013078 -0.861272
2010-09-03 07:14:50 51°20.995 2°56.882 20.8658 0.331639 2.012408 -0.896096
2010-09-03 07:14:55 51°21.012 2°56.898 20.87 0.331639 2.012408 -0.896096
2010-09-03 07:15:00 51°21.029 2°56.913 20.8683 0.331639 2.012442 -0.861272
2010-09-03 07:15:06 51°21.048 2°56.932 20.8631 0.331639 2.012442 -0.861272
2010-09-03 07:15:10 51°21.061 2°56.945 20.8721 0.331743 2.013148 -0.826448
2010-09-03 07:15:16 51°21.081 2°56.964 20.871 0.331639 2.012512 -0.861272
2010-09-03 07:15:20 51°21.093 2°56.977 20.8758 0.331639 2.012546 -0.861272
2010-09-03 07:15:25 51°21.109 2°56.994 20.8745 0.331639 2.012546 -0.896096
2010-09-03 07:15:30 51°21.125 2°57.011 20.8704 0.331639 2.012616 -0.896096
2010-09-03 07:15:35 51°21.141 2°57.027 20.8788 0.331639 2.012616 -0.896096
2010-09-03 07:15:40 51°21.157 2°57.045 20.8841 0.331639 2.012685 -0.93092
2010-09-03 07:15:46 51°21.176 2°57.065 20.8828 0.331639 2.012754 -0.896096
2010-09-03 07:15:50 51°21.189 2°57.079 20.8809 0.331639 2.01272 -0.896096
2010-09-03 07:15:55 51°21.205 2°57.096 20.8835 0.331639 2.012824 -0.861272
2010-09-03 07:16:00 51°21.221 2°57.113 20.8842 0.331639 2.012824 -0.896096
2010-09-03 07:16:06 51°21.24 2°57.134 20.8757 0.331639 2.012824 -0.896096
2010-09-03 07:16:10 51°21.253 2°57.146 20.8859 0.331639 2.012824 -0.896096
2010-09-03 07:16:15 51°21.268 2°57.164 20.8808 0.331639 2.012893 -0.861272
2010-09-03 07:16:20 51°21.284 2°57.181 20.8856 0.331639 2.012893 -0.896096
2010-09-03 07:16:26 51°21.303 2°57.201 20.8824 0.331639 2.012962 -0.896096
2010-09-03 07:16:30 51°21.316 2°57.215 20.8764 0.331535 2.012361 -0.861272
2010-09-03 07:16:35 51°21.332 2°57.231 20.8848 0.331535 2.012361 -0.861272
2010-09-03 07:16:40 51°21.348 2°57.249 20.8848 0.331639 2.012997 -0.896096
2010-09-03 07:16:46 51°21.367 2°57.269 20.8951 0.331639 2.013032 -0.861272
2010-09-03 07:16:50 51°21.38 2°57.283 20.8822 0.331639 2.013101 -0.896096
2010-09-03 07:16:55 51°21.396 2°57.299 20.8954 0.331639 2.013136 -0.896096
2010-09-03 07:17:00 51°21.412 2°57.316 20.8879 0.331639 2.013205 -0.861272
2010-09-03 07:17:06 51°21.431 2°57.337 20.8987 0.331639 2.013205 -0.861272
2010-09-03 07:17:10 51°21.443 2°57.351 20.8795 0.331535 2.012534 -0.861272
2010-09-03 07:17:15 51°21.459 2°57.368 20.8912 0.331535 2.012569 -0.896096
2010-09-03 07:17:20 51°21.475 2°57.384 20.8928 0.331639 2.013344 -0.896096
2010-09-03 07:17:26 51°21.494 2°57.405 20.8956 0.331639 2.013274 -0.861272
2010-09-03 07:17:30 51°21.507 2°57.419 20.8911 0.331535 2.012603 -0.896096
2010-09-03 07:17:35 51°21.523 2°57.435 20.8983 0.331535 2.012603 -0.896096
2010-09-03 07:17:40 51°21.539 2°57.452 20.885 0.331639 2.013378 -0.896096
2010-09-03 07:17:46 51°21.558 2°57.473 20.8939 0.331535 2.012777 -0.896096
2010-09-03 07:17:50 51°21.57 2°57.486 20.8973 0.331535 2.012742 -0.861272
2010-09-03 07:17:55 51°21.586 2°57.503 20.8814 0.331639 2.013517 -0.896096
2010-09-03 07:18:00 51°21.602 2°57.519 20.8925 0.331639 2.013586 -0.861272
2010-09-03 07:18:06 51°21.622 2°57.54 20.8944 0.331639 2.013586 -0.861272
2010-09-03 07:18:10 51°21.634 2°57.553 20.9044 0.331535 2.012846 -0.896096
2010-09-03 07:18:15 51°21.65 2°57.57 20.9023 0.331639 2.013656 -0.896096
2010-09-03 07:18:20 51°21.666 2°57.587 20.8933 0.331639 2.013656 -0.896096
2010-09-03 07:18:25 51°21.682 2°57.604 20.902 0.331639 2.013656 -0.896096
2010-09-03 07:18:30 51°21.698 2°57.621 20.8983 0.331535 2.01302 -0.861272
2010-09-03 07:18:35 51°21.714 2°57.638 20.899 0.331535 2.01302 -0.861272
2010-09-03 07:18:40 51°21.73 2°57.656 20.8956 0.331535 2.013054 -0.896096
2010-09-03 07:18:46 51°21.749 2°57.676 20.9037 0.331535 2.013089 -0.896096
2010-09-03 07:18:50 51°21.761 2°57.691 20.8975 0.331535 2.013124 -0.93092
2010-09-03 07:18:55 51°21.777 2°57.708 20.9066 0.331639 2.013795 -0.896096
2010-09-03 07:19:01 51°21.796 2°57.729 20.8981 0.331535 2.013262 -0.861272
2010-09-03 07:19:06 51°21.812 2°57.748 20.9163 0.331535 2.013262 -0.861272
2010-09-03 07:19:10 51°21.824 2°57.762 20.9085 0.331535 2.013262 -0.896096
2010-09-03 07:19:15 51°21.84 2°57.779 20.9129 0.331639 2.014038 -0.861272
2010-09-03 07:19:20 51°21.855 2°57.797 20.9091 0.331535 2.013332 -0.896096
2010-09-03 07:19:26 51°21.874 2°57.819 20.9123 0.331535 2.013401 -0.861272
2010-09-03 07:19:30 51°21.887 2°57.833 20.9108 0.331535 2.013436 -0.93092
2010-09-03 07:19:35 51°21.902 2°57.851 20.9098 0.331535 2.013436 -0.93092
2010-09-03 07:19:40 51°21.917 2°57.869 20.907 0.331535 2.013471 -0.896096
2010-09-03 07:19:45 51°21.933 2°57.887 20.9215 0.331535 2.01354 -0.896096
2010-09-03 07:19:50 51°21.949 2°57.905 20.9097 0.331535 2.01354 -0.896096
2010-09-03 07:19:55 51°21.964 2°57.923 20.9138 0.331639 2.014246 -0.896096
2010-09-03 07:20:00 51°21.98 2°57.941 20.9187 0.331535 2.013679 -0.861272
2010-09-03 07:20:05 51°21.996 2°57.959 20.9177 0.331535 2.013679 -0.861272
2010-09-03 07:20:10 51°22.011 2°57.976 20.9146 0.331535 2.013714 -0.861272
2010-09-03 07:20:15 51°22.027 2°57.995 20.9168 0.331535 2.013748 -0.896096
2010-09-03 07:20:20 51°22.043 2°58.013 20.9237 0.331639 2.014454 -0.861272
2010-09-03 07:20:26 51°22.061 2°58.034 20.9055 0.331431 2.013181 -0.896096
2010-09-03 07:20:30 51°22.074 2°58.047 20.9217 0.331535 2.013818 -0.896096
2010-09-03 07:20:35 51°22.089 2°58.066 20.9136 0.331535 2.013818 -0.896096
2010-09-03 07:20:40 51°22.105 2°58.083 20.934 0.331535 2.013922 -0.896096
2010-09-03 07:20:46 51°22.124 2°58.105 20.9155 0.331535 2.013922 -0.861272
2010-09-03 07:20:50 51°22.137 2°58.119 20.9304 0.331535 2.014026 -0.896096
2010-09-03 07:20:54 51°22.149 2°58.134 20.9064 0.331535 2.013957 -0.896096
2010-09-03 07:21:00 51°22.168 2°58.154 20.9254 0.331535 2.014026 -0.896096
2010-09-03 07:21:06 51°22.187 2°58.176 20.9292 0.331535 2.014026 -0.896096
2010-09-03 07:21:10 51°22.199 2°58.19 20.9403 0.331535 2.014095 -0.861272
2010-09-03 07:21:15 51°22.215 2°58.209 20.913 0.331535 2.014095 -0.93092
2010-09-03 07:21:21 51°22.234 2°58.23 20.9426 0.331431 2.013459 -0.896096
2010-09-03 07:21:26 51°22.249 2°58.248 20.9182 0.331535 2.014165 -0.93092
2010-09-03 07:21:30 51°22.262 2°58.261 20.9393 0.331535 2.0142 -0.861272
2010-09-03 07:21:34 51°22.274 2°58.276 20.9226 0.331535 2.0142 -0.861272
2010-09-03 07:21:40 51°22.293 2°58.297 20.9291 0.331535 2.014269 -0.861272
2010-09-03 07:21:46 51°22.312 2°58.319 20.9292 0.331535 2.014234 -0.861272
2010-09-03 07:21:50 51°22.324 2°58.333 20.9419 0.331535 2.014304 -0.896096
2010-09-03 07:21:55 51°22.34 2°58.351 20.9251 0.331431 2.013632 -0.896096
2010-09-03 07:22:00 51°22.356 2°58.368 20.9314 0.331535 2.014339 -0.896096
2010-09-03 07:22:06 51°22.374 2°58.39 20.9322 0.331535 2.014339 -0.896096
2010-09-03 07:22:10 51°22.387 2°58.403 20.9368 0.331431 2.013771 -0.896096
2010-09-03 07:22:16 51°22.405 2°58.425 20.9263 0.331535 2.014443 -0.861272
2010-09-03 07:22:20 51°22.418 2°58.439 20.9417 0.331431 2.013806 -0.896096
2010-09-03 07:22:25 51°22.434 2°58.457 20.9266 0.331535 2.014547 -0.896096
2010-09-03 07:22:30 51°22.45 2°58.475 20.9389 0.331535 2.014547 -0.93092
2010-09-03 07:22:35 51°22.465 2°58.493 20.9385 0.331535 2.014547 -0.93092
2010-09-03 07:22:40 51°22.481 2°58.51 20.9397 0.331431 2.01391 -0.896096
2010-09-03 07:22:46 51°22.5 2°58.532 20.9392 0.331535 2.014582 -0.896096
2010-09-03 07:22:50 51°22.513 2°58.545 20.9348 0.331431 2.01398 -0.896096
2010-09-03 07:22:55 51°22.528 2°58.563 20.9467 0.331535 2.014686 -0.896096
2010-09-03 07:23:01 51°22.548 2°58.584 20.9363 0.331431 2.014015 -0.896096
2010-09-03 07:23:06 51°22.563 2°58.602 20.9478 0.331431 2.014015 -0.896096
2010-09-03 07:23:10 51°22.576 2°58.617 20.9439 0.331431 2.014015 -0.861272
2010-09-03 07:23:14 51°22.589 2°58.63 20.9523 0.331535 2.014721 -0.896096
2010-09-03 07:23:21 51°22.611 2°58.655 20.9381 0.331431 2.014154 -0.896096
2010-09-03 07:23:26 51°22.626 2°58.674 20.9407 0.331535 2.01486 -0.861272
2010-09-03 07:23:30 51°22.639 2°58.688 20.945 0.331431 2.014258 -0.896096
2010-09-03 07:23:35 51°22.655 2°58.706 20.9526 0.331431 2.014258 -0.896096
2010-09-03 07:23:40 51°22.671 2°58.723 20.9457 0.331431 2.014223 -0.896096
2010-09-03 07:23:46 51°22.69 2°58.744 20.9517 0.331431 2.014258 -0.861272
2010-09-03 07:23:50 51°22.702 2°58.758 20.9491 0.331431 2.014362 -0.896096
2010-09-03 07:23:55 51°22.718 2°58.776 20.9525 0.331431 2.014327 -0.896096
2010-09-03 07:24:00 51°22.734 2°58.795 20.9571 0.331431 2.014362 -0.896096
2010-09-03 07:24:05 51°22.75 2°58.812 20.9464 0.331431 2.014362 -0.896096
2010-09-03 07:24:10 51°22.765 2°58.83 20.9568 0.331535 2.015138 -0.861272
2010-09-03 07:24:15 51°22.781 2°58.848 20.9491 0.331535 2.015138 -0.93092
2010-09-03 07:24:20 51°22.797 2°58.866 20.9496 0.331431 2.014501 -0.861272
2010-09-03 07:24:25 51°22.812 2°58.884 20.9618 0.331431 2.014501 -0.896096
2010-09-03 07:24:30 51°22.828 2°58.904 20.9545 0.331326 2.013829 -0.861272
2010-09-03 07:24:35 51°22.843 2°58.922 20.9549 0.331326 2.013829 -0.861272
2010-09-03 07:24:40 51°22.858 2°58.941 20.9605 0.331431 2.014605 -0.896096
2010-09-03 07:24:46 51°22.877 2°58.964 20.9615 0.331431 2.014675 -0.861272
2010-09-03 07:24:50 51°22.889 2°58.979 20.9582 0.331431 2.01471 -0.861272
2010-09-03 07:24:55 51°22.904 2°58.998 20.9591 0.331431 2.01471 -0.896096
2010-09-03 07:25:00 51°22.919 2°59.018 20.967 0.331431 2.014744 -0.896096
2010-09-03 07:25:06 51°22.937 2°59.041 20.9562 0.331431 2.014744 -0.896096
2010-09-03 07:25:10 51°22.949 2°59.056 20.9647 0.331431 2.014849 -0.896096
2010-09-03 07:25:15 51°22.964 2°59.075 20.9624 0.331431 2.014814 -0.896096
2010-09-03 07:25:20 51°22.98 2°59.094 20.9548 0.331431 2.014883 -0.861272
2010-09-03 07:25:26 51°22.998 2°59.118 20.9671 0.331431 2.014883 -0.896096
2010-09-03 07:25:30 51°23.01 2°59.133 20.9663 0.331326 2.014281 -0.896096
2010-09-03 07:25:35 51°23.025 2°59.153 20.9593 0.331326 2.014281 -0.896096
2010-09-03 07:25:40 51°23.04 2°59.173 20.957 0.331431 2.015023 -0.896096
2010-09-03 07:25:46 51°23.057 2°59.197 20.9776 0.331326 2.014316 -0.896096
2010-09-03 07:25:50 51°23.069 2°59.213 20.9717 0.331431 2.015127 -0.896096
2010-09-03 07:25:55 51°23.084 2°59.233 20.9755 0.331326 2.01449 -0.896096
2010-09-03 07:26:01 51°23.102 2°59.258 20.9708 0.331431 2.015127 -0.896096
2010-09-03 07:26:06 51°23.117 2°59.277 20.9751 0.331431 2.015127 -0.896096
2010-09-03 07:26:10 51°23.129 2°59.293 20.964 0.331326 2.014525 -0.896096
2010-09-03 07:26:15 51°23.143 2°59.313 20.9657 0.331326 2.014594 -0.861272
2010-09-03 07:26:20 51°23.158 2°59.334 20.9788 0.331326 2.014594 -0.861272
2010-09-03 07:26:25 51°23.172 2°59.355 20.9722 0.331326 2.014629 -0.861272
2010-09-03 07:26:30 51°23.187 2°59.375 20.978 0.331326 2.014594 -0.896096
2010-09-03 07:26:35 51°23.201 2°59.396 20.9799 0.331326 2.014594 -0.896096
2010-09-03 07:26:40 51°23.215 2°59.417 20.9765 0.331326 2.014664 -0.861272
2010-09-03 07:26:46 51°23.232 2°59.442 20.9722 0.331326 2.014698 -0.896096
2010-09-03 07:26:50 51°23.244 2°59.459 20.985 0.331326 2.014733 -0.896096
2010-09-03 07:26:55 51°23.258 2°59.48 20.9804 0.331326 2.014768 -0.896096
2010-09-03 07:27:00 51°23.272 2°59.501 20.9731 0.331326 2.014872 -0.861272
2010-09-03 07:27:06 51°23.29 2°59.526 20.9861 0.331326 2.014872 -0.861272
2010-09-03 07:27:10 51°23.301 2°59.543 20.9859 0.331326 2.014907 -0.861272
2010-09-03 07:27:15 51°23.316 2°59.564 20.9936 0.331326 2.014907 -0.896096
2010-09-03 07:27:20 51°23.33 2°59.585 20.9927 0.331326 2.014907 -0.896096
2010-09-03 07:27:25 51°23.345 2°59.605 20.9754 0.331326 2.014977 -0.896096
2010-09-03 07:27:30 51°23.359 2°59.625 20.9919 0.331326 2.015046 -0.861272
2010-09-03 07:27:35 51°23.374 2°59.645 20.9923 0.331326 2.015046 -0.861272
2010-09-03 07:27:40 51°23.389 2°59.665 20.9901 0.331326 2.014977 -0.861272
2010-09-03 07:27:46 51°23.407 2°59.689 20.9841 0.331326 2.015081 -0.896096
2010-09-03 07:27:50 51°23.419 2°59.705 20.9925 0.331326 2.015081 -0.93092
2010-09-03 07:27:55 51°23.434 2°59.725 21.0026 0.331326 2.015151 -0.896096
2010-09-03 07:28:01 51°23.452 2°59.749 20.9865 0.331326 2.015151 -0.896096
2010-09-03 07:28:06 51°23.467 2°59.766 20.9896 0.331326 2.015151 -0.896096
2010-09-03 07:28:10 51°23.479 2°59.782 20.9979 0.331326 2.01529 -0.861272
2010-09-03 07:28:15 51°23.496 2°59.799 20.9825 0.331222 2.014583 -0.896096
2010-09-03 07:28:20 51°23.511 2°59.818 20.9961 0.331326 2.015255 -0.896096
2010-09-03 07:28:26 51°23.53 2°59.839 20.9912 0.331326 2.015325 -0.861272
2010-09-03 07:28:30 51°23.543 2°59.854 20.9933 0.331326 2.015325 -0.896096
2010-09-03 07:28:35 51°23.559 2°59.871 20.9991 0.331326 2.015325 -0.896096
2010-09-03 07:28:40 51°23.574 2°59.889 21.0022 0.331222 2.014653 -0.896096
2010-09-03 07:28:45 51°23.59 2°59.907 21.0024 0.331222 2.014653 -0.896096
2010-09-03 07:28:50 51°23.606 2°59.925 20.9991 0.331326 2.01536 -0.896096
2010-09-03 07:28:55 51°23.622 2°59.943 20.9988 0.331222 2.014722 -0.896096
2010-09-03 07:29:00 51°23.638 2°59.96 21.0063 0.331222 2.014757 -0.896096
2010-09-03 07:29:05 51°23.654 2°59.978 20.9947 0.331222 2.014757 -0.896096
2010-09-03 07:29:10 51°23.67 2°59.996 21.0125 0.331326 2.015499 -0.861272
2010-09-03 07:29:15 51°23.686 3°0.013 21.0057 0.331222 2.014792 -0.896096
2010-09-03 07:29:20 51°23.702 3°0.031 20.9943 0.331222 2.014861 -0.896096
2010-09-03 07:29:26 51°23.721 3°0.053 21.0097 0.331326 2.015499 -0.896096
2010-09-03 07:29:30 51°23.734 3°0.067 21.0085 0.331222 2.014861 -0.861272
2010-09-03 07:29:35 51°23.75 3°0.085 20.9963 0.331222 2.014861 -0.861272
2010-09-03 07:29:40 51°23.766 3°0.102 21.0041 0.331326 2.015568 -0.861272
2010-09-03 07:29:46 51°23.785 3°0.124 21.0058 0.331222 2.014896 -0.896096
2010-09-03 07:29:50 51°23.798 3°0.138 21.0096 0.331326 2.015638 -0.896096
2010-09-03 07:29:55 51°23.813 3°0.156 21.0101 0.331222 2.015001 -0.896096
2010-09-03 07:30:01 51°23.832 3°0.177 21.0012 0.331222 2.015001 -0.861272
2010-09-03 07:30:06 51°23.849 3°0.195 21.0178 0.331222 2.015001 -0.861272
2010-09-03 07:30:10 51°23.861 3°0.21 21.0143 0.331118 2.014398 -0.896096
2010-09-03 07:30:14 51°23.874 3°0.225 21.0132 0.331222 2.015105 -0.861272
2010-09-03 07:30:20 51°23.893 3°0.245 21.0011 0.331222 2.01514 -0.861272
2010-09-03 07:30:26 51°23.912 3°0.267 21.0193 0.331222 2.01514 -0.861272
2010-09-03 07:30:30 51°23.925 3°0.282 21.0178 0.331118 2.014502 -0.896096
2010-09-03 07:30:35 51°23.94 3°0.3 21.0096 0.331118 2.014502 -0.896096
2010-09-03 07:30:40 51°23.956 3°0.318 21.0244 0.331222 2.015244 -0.896096
2010-09-03 07:30:46 51°23.975 3°0.339 21.0092 0.331222 2.015209 -0.896096
2010-09-03 07:30:50 51°23.987 3°0.353 21.014 0.331118 2.014607 -0.861272
2010-09-03 07:30:55 51°24.003 3°0.37 21.0128 0.331222 2.015244 -0.861272
2010-09-03 07:31:00 51°24.019 3°0.389 21.0254 0.331222 2.015314 -0.896096
2010-09-03 07:31:05 51°24.035 3°0.406 21.0266 0.331222 2.015314 -0.896096
2010-09-03 07:31:10 51°24.051 3°0.424 21.0187 0.331222 2.015349 -0.861272
2010-09-03 07:31:15 51°24.066 3°0.442 21.0257 0.331222 2.015384 -0.896096
2010-09-03 07:31:20 51°24.082 3°0.46 21.023 0.331222 2.015384 -0.861272
2010-09-03 07:31:25 51°24.098 3°0.478 21.0276 0.331118 2.014746 -0.896096
2010-09-03 07:31:30 51°24.114 3°0.496 21.0168 0.331222 2.015453 -0.896096
2010-09-03 07:31:35 51°24.13 3°0.513 21.0266 0.331222 2.015453 -0.896096
2010-09-03 07:31:40 51°24.146 3°0.531 21.0294 0.331118 2.014816 -0.896096
2010-09-03 07:31:46 51°24.165 3°0.553 21.0317 0.331118 2.014816 -0.896096
2010-09-03 07:31:50 51°24.178 3°0.567 21.0303 0.331118 2.014885 -0.896096
2010-09-03 07:31:55 51°24.194 3°0.585 21.0313 0.331118 2.01492 -0.861272
2010-09-03 07:32:01 51°24.213 3°0.606 21.0362 0.331118 2.014955 -0.896096
2010-09-03 07:32:06 51°24.228 3°0.624 21.0257 0.331118 2.014955 -0.896096
2010-09-03 07:32:10 51°24.241 3°0.638 21.0373 0.331222 2.015662 -0.896096
2010-09-03 07:32:15 51°24.257 3°0.656 21.0339 0.331118 2.015059 -0.861272
2010-09-03 07:32:20 51°24.273 3°0.674 21.0354 0.331118 2.015024 -0.896096
2010-09-03 07:32:26 51°24.292 3°0.695 21.0291 0.331118 2.015094 -0.896096
2010-09-03 07:32:30 51°24.305 3°0.709 21.039 0.331118 2.015059 -0.861272
2010-09-03 07:32:35 51°24.321 3°0.727 21.0392 0.331118 2.015059 -0.861272
2010-09-03 07:32:40 51°24.337 3°0.745 21.0367 0.331118 2.015094 -0.896096
2010-09-03 07:32:46 51°24.356 3°0.766 21.0293 0.331118 2.015059 -0.896096
2010-09-03 07:32:50 51°24.369 3°0.781 21.0428 0.331118 2.015129 -0.93092
2010-09-03 07:32:55 51°24.384 3°0.799 21.0332 0.331118 2.015233 -0.896096
2010-09-03 07:33:00 51°24.4 3°0.817 21.0386 0.331118 2.015199 -0.861272
2010-09-03 07:33:05 51°24.415 3°0.835 21.0454 0.331118 2.015199 -0.861272
2010-09-03 07:33:10 51°24.431 3°0.853 21.0389 0.331118 2.015338 -0.861272
2010-09-03 07:33:15 51°24.446 3°0.87 21.0557 0.331118 2.015233 -0.896096
2010-09-03 07:33:20 51°24.462 3°0.888 21.0459 0.331118 2.015373 -0.896096
2010-09-03 07:33:25 51°24.478 3°0.905 21.0485 0.331014 2.014665 -0.861272
2010-09-03 07:33:30 51°24.494 3°0.923 21.0407 0.331118 2.015408 -0.896096
2010-09-03 07:33:35 51°24.51 3°0.94 21.047 0.331118 2.015408 -0.896096
2010-09-03 07:33:40 51°24.525 3°0.958 21.0501 0.331118 2.015373 -0.896096